GFSCGP_925_rhum_000.txt.gz
RH
20 28 26 21 20 22 20 24 28 25 22 30 30 32 28 19 22 25 26 27 27 28 29 26 24 23 22 22 21 21 21 22 23 24 25 28 28 27 29 28 34 48 38 39
27 27 18 18 22 21 24 29 33 31 26 30 32 33 24 19 20 23 28 28 26 26 30 28 23 21 20 20 20 22 22 22 22 24 24 25 25 25 25 24 27 32 41 41
27 20 16 20 26 26 24 30 32 35 36 33 31 31 22 18 23 24 22 25 24 24 26 29 29 23 22 22 22 22 22 23 24 24 25 25 26 28 27 26 26 26 29 39
21 18 17 25 24 26 31 24 31 37 41 46 32 51 27 21 21 22 25 27 25 24 24 22 23 27 25 21 22 23 23 24 26 27 27 28 27 30 26 26 25 27 28 36
24 17 21 25 24 25 30 30 38 38 46 42 41 43 30 21 22 24 29 31 29 29 27 24 24 22 22 23 23 24 25 26 26 28 30 32 33 30 28 27 28 26 26 29
20 17 21 21 25 28 31 38 44 48 48 63 40 39 39 32 24 32 32 29 31 29 28 29 26 27 30 30 30 30 31 32 33 33 33 35 35 34 35 32 31 29 29 33
40 29 24 26 35 35 42 56 79 69 78 71 45 47 36 28 27 29 30 31 29 29 30 32 27 40 38 36 37 35 34 35 34 33 31 29 31 35 41 40 38 40 39 42
64 61 40 29 33 37 41 53 82 78 84 76 50 46 38 26 24 25 27 29 30 32 35 35 45 43 40 39 39 41 39 41 36 35 32 31 32 33 35 42 47 50 42 40
71 56 41 33 32 34 41 60 44 64 91 86 68 49 30 30 35 33 33 31 40 44 48 49 42 45 45 44 45 45 46 46 39 39 31 34 29 30 34 43 50 44 42 47
51 68 49 46 40 36 36 38 64 81 84 94 70 60 51 39 43 41 41 39 46 44 44 44 47 46 44 44 44 43 44 49 46 29 32 35 34 38 37 36 36 39 46 50
51 59 61 50 50 51 50 65 56 58 79 95 97 82 45 45 45 45 45 48 44 43 48 53 50 48 46 46 48 50 54 55 37 40 36 39 39 39 37 34 37 44 48 53
51 68 81 57 49 42 43 53 63 88 79 86 91 70 39 44 38 47 46 43 42 41 50 57 54 53 54 54 54 56 59 48 46 48 40 40 41 39 36 39 43 45 46 47
46 70 83 60 50 56 59 53 58 67 81 85 93 79 36 38 46 44 49 49 51 52 60 64 62 57 58 56 55 59 61 50 56 54 44 42 38 35 39 43 46 46 46 41
54 66 67 80 62 68 73 61 56 63 92 80 73 64 49 44 49 52 57 59 56 62 63 65 68 62 61 60 61 64 52 60 60 57 44 41 38 40 49 48 48 49 44 41
58 74 69 69 65 65 67 67 67 73 68 85 68 63 53 62 59 59 58 60 61 65 67 69 69 70 66 64 64 62 64 65 66 58 42 45 54 60 59 55 64 80 52 44
67 85 78 81 72 77 83 72 70 69 65 66 63 58 67 70 68 69 69 66 71 73 67 62 68 69 67 65 69 66 67 73 77 71 78 76 73 73 75 92 74 65 56 49
73 88 96 75 92 94 90 75 65 56 54 58 76 64 73 83 79 75 73 71 75 78 66 68 73 73 68 69 67 68 75 85 84 88 93 96 95 96 73 68 68 64 48 40
87 96 97 97 96 98 62 51 52 56 58 56 73 74 76 78 73 72 67 69 78 72 66 69 74 70 67 68 65 73 75 77 87 84 85 84 83 79 66 55 45 38 36 36
76 98 96 97 97 76 67 56 50 57 68 73 80 80 79 80 84 77 60 65 70 67 70 75 70 68 68 66 70 76 62 68 70 49 48 51 56 49 40 38 38 39 40 39
92 92 87 93 99 91 62 49 50 54 82 72 73 81 87 87 97 78 70 74 59 67 70 68 65 65 69 65 62 54 45 44 45 44 45 47 44 43 43 44 43 41 41 48
97 98 96 100 99 86 61 52 52 76 65 66 70 74 82 94 84 77 79 63 65 69 70 68 68 72 73 67 59 42 43 44 51 47 44 45 46 49 51 46 45 45 51 61
69 85 96 97 99 94 53 57 76 69 69 65 65 78 87 86 85 74 66 69 70 76 73 69 76 74 69 55 40 42 50 62 49 47 50 53 56 59 52 50 50 56 63 66
80 74 80 80 80 61 56 59 60 69 60 70 79 79 83 84 77 76 67 69 74 77 76 75 78 65 59 41 41 48 53 50 50 52 54 61 65 64 56 58 62 63 64 70
71 61 82 77 59 58 58 52 52 60 71 84 87 90 86 84 83 70 71 72 76 76 77 76 76 64 63 54 46 46 49 53 54 56 58 69 74 61 64 67 67 68 66 82
83 85 87 84 73 64 59 59 66 71 80 75 74 76 80 68 59 70 71 72 75 75 77 88 96 95 66 48 49 50 53 56 58 60 62 69 71 66 68 69 75 69 75 87
79 73 90 87 62 69 66 74 68 73 80 83 81 70 53 53 70 66 70 64 62 74 91 76 76 54 46 50 49 51 51 56 59 64 65 65 66 76 66 73 79 76 80 73

GFSCGP_925_rhum_003.txt.gz
RH
24 28 25 21 22 22 21 26 32 27 24 33 33 39 33 29 24 25 26 28 32 32 32 28 26 26 27 25 23 21 21 20 22 22 24 24 24 25 26 27 28 29 27 36
29 26 19 21 23 21 24 29 31 33 29 36 36 36 24 23 22 26 32 33 32 32 32 30 26 23 21 21 21 21 21 21 21 22 23 24 24 25 25 26 26 26 26 27
29 20 18 22 27 27 26 29 30 35 37 33 37 33 22 22 25 25 25 28 28 33 34 32 27 22 22 21 21 21 21 22 23 24 24 25 26 27 27 27 27 26 26 29
23 17 22 26 25 27 32 23 31 39 42 47 38 43 32 22 23 24 30 30 28 28 25 28 28 26 24 22 23 24 25 26 26 29 29 30 32 35 31 31 32 32 29 27
24 18 26 28 27 28 35 37 40 40 46 45 42 45 37 30 22 26 31 30 29 28 25 24 24 25 25 26 26 30 30 32 34 34 34 35 38 38 37 38 39 38 38 35
34 21 23 25 27 32 35 42 48 51 52 62 43 44 42 37 33 32 31 30 31 30 27 31 33 34 37 38 36 33 34 36 38 38 36 36 34 33 40 38 38 35 40 41
47 40 35 30 37 38 45 59 73 64 76 71 50 48 42 31 31 30 32 32 32 31 32 35 42 44 42 40 41 41 40 41 42 36 35 34 31 33 36 32 35 44 49 50
67 56 44 36 35 39 43 54 80 68 85 79 54 50 42 29 28 28 28 33 33 41 47 49 49 48 46 44 44 43 44 44 44 43 34 31 31 30 31 31 35 41 56 50
77 57 44 38 41 37 45 63 49 76 94 89 72 53 36 37 42 33 36 40 50 53 52 48 48 47 46 43 42 46 46 46 51 38 43 45 41 38 34 34 38 50 51 53
56 72 51 48 40 42 43 42 67 84 84 90 77 72 57 43 51 44 46 53 46 45 46 53 52 47 43 46 46 48 50 54 53 48 52 52 43 42 40 38 40 49 50 54
49 60 56 47 51 54 58 69 62 63 81 91 96 83 53 53 48 51 54 46 44 44 50 56 53 51 48 48 52 51 56 60 52 54 58 53 46 46 46 43 43 47 52 49
53 69 80 53 51 50 48 63 64 86 77 87 94 74 43 43 46 53 52 54 55 52 54 60 56 54 53 56 57 57 62 62 54 61 60 55 48 49 44 44 46 48 43 41
49 71 80 55 48 48 59 60 62 73 83 86 92 78 46 44 53 52 58 60 61 57 61 63 63 60 58 59 60 58 62 56 62 62 62 59 50 52 45 48 48 45 43 39
54 67 64 79 55 66 75 68 64 70 93 82 80 63 52 54 63 65 67 66 64 63 61 66 66 65 61 63 62 62 64 64 63 67 72 61 45 44 50 50 58 69 69 54
61 73 69 70 67 70 72 76 72 81 77 86 74 72 60 60 74 72 67 67 67 64 67 69 68 67 66 69 64 68 66 63 68 80 78 64 60 62 65 88 79 78 77 57
73 83 79 84 77 81 86 78 81 79 79 79 74 70 50 67 73 77 77 74 75 74 75 69 64 66 74 72 68 67 65 73 82 87 92 94 96 98 98 93 94 81 87 92
74 90 98 82 93 94 82 75 75 66 55 57 74 63 66 77 79 84 78 78 79 76 80 68 69 75 76 69 71 69 72 80 87 91 91 89 93 97 98 98 93 83 57 45
92 95 97 95 96 96 57 48 50 60 58 58 62 75 75 79 74 80 76 86 80 79 63 60 74 77 67 68 66 73 79 78 91 79 58 59 59 58 59 52 45 42 42 43
84 97 96 99 98 78 64 54 52 56 61 60 73 74 76 64 88 88 74 78 70 61 58 63 71 69 62 68 63 58 57 56 55 57 62 64 48 47 44 45 45 43 43 47
94 91 92 98 99 95 65 46 46 59 90 66 72 79 67 78 96 75 88 78 78 67 64 71 66 64 68 73 65 70 72 63 60 68 63 49 48 51 52 50 46 48 53 59
97 98 99 98 97 89 64 56 52 90 70 62 68 67 72 86 81 89 79 74 66 64 68 68 67 74 75 61 60 53 45 60 60 54 50 51 54 58 56 51 52 57 61 64
72 83 95 98 98 94 58 60 81 74 65 68 74 76 85 87 86 86 76 77 64 71 68 64 74 77 69 58 49 51 48 56 51 48 50 54 61 64 60 58 62 61 65 64
84 72 81 74 80 62 55 60 59 66 75 74 84 89 91 88 88 76 73 69 69 65 69 70 77 80 67 62 46 50 52 49 50 53 54 57 66 65 61 66 66 68 66 77
82 72 88 77 65 59 61 58 53 61 72 89 79 82 91 95 74 62 64 74 69 64 71 74 85 87 91 78 53 48 48 51 54 57 57 61 65 62 67 62 71 77 78 83
82 86 87 81 73 72 65 66 80 82 85 84 82 87 86 72 60 55 61 72 66 62 68 85 84 79 69 62 53 49 48 50 57 61 64 64 62 65 72 64 72 82 78 88
85 76 93 95 69 72 70 88 89 87 84 81 78 75 65 53 55 58 76 66 66 64 69 82 68 68 56 49 51 46 46 53 60 63 68 73 78 81 79 70 79 75 72 81

GFSCGP_925_rhum_006.txt.gz
RH
28 29 27 23 24 23 23 26 32 30 27 35 37 42 32 28 29 28 26 31 37 34 32 31 28 25 25 27 30 26 23 23 22 22 23 23 23 24 25 25 26 26 27 28
29 26 21 26 26 23 24 29 30 33 32 36 39 37 23 28 29 33 37 38 34 33 31 30 28 27 27 25 23 22 21 22 22 24 26 28 28 27 27 26 27 28 28 28
30 22 24 24 30 33 31 27 29 35 39 36 39 31 32 23 28 30 32 29 30 32 30 29 27 24 23 22 23 24 24 25 27 28 30 31 33 34 34 33 34 32 33 35
26 21 25 32 29 30 37 26 32 39 46 47 39 42 37 35 25 32 30 29 26 28 31 32 30 27 26 26 26 29 32 36 38 38 38 40 42 43 36 38 39 38 36 37
24 23 31 36 30 30 38 40 43 41 50 47 48 46 36 35 27 28 30 30 30 32 30 27 28 33 38 35 39 38 38 39 39 36 37 36 34 34 35 34 37 31 30 30
38 27 28 29 29 35 38 46 44 54 55 63 49 49 44 40 34 32 31 30 33 30 32 37 42 45 44 41 40 39 36 37 37 38 38 36 38 40 38 36 35 35 36 35
49 42 41 34 41 40 49 55 64 62 74 70 51 52 42 34 32 31 32 31 34 42 46 42 55 51 46 43 42 42 43 45 47 49 42 45 45 46 39 38 40 40 39 42
68 51 45 40 38 42 47 56 77 59 87 82 59 54 44 32 38 34 35 44 54 58 60 60 54 51 47 46 44 47 50 50 47 49 48 51 54 51 44 39 41 43 45 54
80 56 47 42 45 40 46 66 54 79 96 90 73 56 42 44 48 44 52 54 52 51 52 52 52 50 47 44 44 48 50 52 51 56 53 58 58 52 47 41 42 47 52 58
56 68 49 48 41 43 48 47 65 84 88 88 74 70 62 57 54 57 55 51 53 52 54 55 51 48 49 50 53 53 53 56 58 58 56 61 57 50 51 50 50 58 61 63
50 60 49 46 53 56 60 68 65 68 83 93 97 80 56 55 53 59 54 59 61 60 53 56 54 52 54 54 54 56 52 56 59 56 63 59 57 60 52 55 56 61 65 55
57 70 76 50 45 53 54 57 64 83 71 90 93 85 46 49 57 55 57 62 62 60 60 58 57 59 59 54 56 61 56 62 63 65 58 62 69 58 51 58 64 63 48 43
50 71 76 47 50 52 60 61 65 77 84 85 95 74 51 51 57 54 62 66 68 67 66 65 62 63 60 56 59 66 65 67 66 61 72 77 66 47 56 59 59 61 63 54
58 69 60 71 53 59 73 70 68 73 91 82 82 65 54 52 59 70 73 73 72 71 70 70 73 67 60 61 70 72 70 67 67 74 84 74 64 62 77 84 79 79 77 80
64 75 72 71 68 71 74 79 78 88 80 88 68 77 64 62 62 74 73 74 75 70 73 75 77 67 65 71 74 71 68 68 77 82 85 87 84 80 80 84 86 83 86 97
75 80 83 87 84 86 93 83 85 84 84 87 82 86 61 56 71 79 77 76 80 82 80 81 71 68 73 67 74 72 70 76 86 92 94 93 89 95 99 88 78 70 68 71
75 92 98 86 89 92 73 59 76 69 68 67 69 54 54 71 77 73 71 86 86 88 73 66 57 56 65 73 70 68 73 79 92 88 68 68 64 60 61 64 65 60 48 47
98 96 96 97 89 95 58 48 49 61 58 56 63 64 68 75 76 74 82 86 86 78 74 66 59 65 70 67 71 70 66 75 72 68 67 66 66 52 47 46 47 46 44 45
86 98 96 97 93 80 65 54 47 59 62 51 62 70 72 70 78 73 89 87 86 81 70 64 70 70 68 69 69 60 63 63 67 71 72 62 53 53 53 54 50 49 51 54
93 92 94 99 98 96 63 48 48 62 86 65 66 66 65 76 94 80 87 83 74 58 64 72 69 65 64 74 76 65 68 68 59 65 56 53 54 55 60 57 56 57 61 70
96 98 97 92 99 90 66 59 53 86 74 61 64 70 79 87 96 92 85 67 49 59 67 65 62 66 74 75 62 61 55 51 59 56 52 49 50 59 64 60 62 64 66 66
69 82 94 97 99 94 58 61 73 69 69 69 72 78 94 93 90 83 72 63 55 66 67 56 67 69 74 74 60 58 78 59 55 53 52 47 52 62 61 64 61 64 71 70
85 74 80 85 85 63 52 66 58 62 76 78 87 91 93 89 83 73 72 63 56 68 68 61 69 78 77 79 84 93 63 69 53 55 54 55 57 61 61 67 62 68 77 82
82 78 91 80 72 78 71 62 71 85 91 90 92 92 87 82 84 78 74 63 59 66 67 64 72 84 79 56 65 72 58 50 54 58 60 63 64 64 64 70 66 73 81 82
89 82 89 91 76 76 73 92 93 90 90 90 83 79 74 75 80 77 71 74 74 73 68 66 74 85 72 63 58 47 53 52 56 60 65 72 76 78 81 86 72 80 79 83
89 90 95 80 68 90 88 90 90 86 83 77 78 78 73 72 70 71 76 74 74 76 72 75 83 82 74 70 47 51 54 55 60 64 70 79 73 72 88 85 84 80 77 77

GFSCGP_925_rhum_009.txt.gz
RH
28 24 26 26 26 24 24 26 30 27 29 32 36 32 21 24 25 25 25 26 26 27 30 30 26 25 26 27 29 32 29 30 37 35 30 28 26 26 27 29 31 33 34 33
26 28 23 27 26 24 26 28 26 29 30 34 34 26 24 26 30 32 31 30 29 28 28 32 33 31 30 29 35 34 30 28 28 29 30 32 33 34 35 35 33 32 32 33
31 23 25 24 32 34 33 28 31 34 34 34 33 27 28 23 26 27 28 29 28 27 26 27 28 32 28 30 29 29 30 35 39 39 38 38 38 40 39 41 36 32 32 31
25 25 31 34 33 34 37 32 39 40 41 37 37 31 30 30 26 28 26 27 27 27 27 28 31 37 40 37 40 42 42 40 40 40 37 36 46 46 47 49 45 29 27 32
25 29 34 37 32 34 39 42 44 42 45 43 41 34 31 31 28 26 27 28 29 31 33 40 49 51 53 45 44 42 40 41 42 41 39 42 49 54 54 54 51 45 39 33
38 33 32 34 31 36 40 43 41 47 47 50 47 42 38 34 33 31 29 29 35 36 36 42 52 51 52 44 41 40 39 40 41 39 43 47 52 59 60 56 52 48 48 49
43 40 40 37 38 39 43 42 46 54 60 54 48 46 38 36 34 32 33 36 46 49 47 47 47 48 49 44 43 44 43 49 50 50 51 52 58 63 61 57 51 52 55 59
55 44 44 43 42 44 50 50 62 54 63 60 53 49 45 42 38 36 44 46 44 45 48 49 50 51 51 52 51 58 58 55 52 46 49 51 56 60 58 58 59 61 64 70
64 49 45 46 46 42 47 59 52 71 90 79 56 48 42 40 40 44 44 44 46 44 45 47 49 51 54 57 54 51 52 44 45 52 56 56 62 54 62 64 62 65 68 78
59 58 48 45 42 44 44 46 54 66 74 68 51 58 42 48 45 49 48 52 51 47 43 43 43 50 56 57 52 54 57 56 58 64 62 67 62 63 64 54 52 64 73 92
51 55 45 46 53 55 52 55 60 59 71 80 91 56 49 48 47 47 50 54 54 51 48 46 49 53 60 60 62 64 68 68 72 66 63 58 60 60 50 57 68 73 80 66
57 64 58 47 49 52 52 54 54 61 60 76 83 65 42 46 46 48 50 55 54 53 51 51 54 59 63 60 59 67 76 78 69 62 68 77 64 56 60 72 72 68 65 60
53 66 58 37 45 46 57 58 64 69 76 76 88 57 43 50 49 47 53 54 54 56 55 54 56 63 59 58 65 74 75 70 68 78 84 76 72 66 87 95 96 94 91 86
59 66 55 50 40 51 66 67 64 68 83 67 69 54 46 43 46 48 54 59 55 58 60 60 62 55 53 58 71 77 72 65 70 84 87 85 87 91 96 98 96 96 91 91
63 75 71 65 62 66 65 66 68 73 69 80 61 59 51 48 53 52 58 57 59 58 66 68 57 55 53 64 70 72 71 71 82 91 93 95 94 99 85 65 67 70 75 79
72 72 83 86 79 78 87 70 73 72 72 75 70 72 51 51 57 65 58 59 62 75 71 62 60 56 55 70 71 74 76 86 88 97 78 68 67 69 71 74 76 76 68 60
75 87 93 76 86 84 74 55 68 65 63 58 63 46 54 58 66 58 57 66 84 75 68 58 45 53 65 71 75 71 77 67 78 74 68 70 76 65 59 57 55 55 56 57
97 92 95 95 85 82 48 49 49 56 53 50 53 55 60 62 59 61 77 81 84 79 62 48 47 64 71 69 68 72 65 69 70 70 76 78 67 60 60 59 58 58 58 61
82 96 99 96 86 76 58 50 51 59 52 55 66 70 67 63 65 74 83 82 78 74 60 52 62 72 71 66 78 69 64 66 67 70 72 63 61 61 62 61 61 63 64 65
87 88 93 99 99 93 62 48 52 58 71 66 65 69 70 70 96 82 90 82 72 57 49 51 66 71 65 66 78 78 70 72 66 65 62 55 54 62 62 65 64 66 68 68
98 96 92 88 95 83 63 58 55 86 87 72 65 67 77 91 99 91 88 78 62 58 54 60 72 67 63 69 80 74 62 61 69 63 55 51 49 58 66 64 67 65 66 80
67 81 91 95 95 94 54 59 76 74 80 74 73 83 97 90 86 76 67 65 55 57 56 63 70 66 61 70 80 63 66 75 84 71 55 54 56 58 60 66 66 67 71 82
83 72 79 84 79 59 54 58 68 74 84 93 95 91 89 86 77 58 66 60 62 61 60 69 70 69 70 76 76 69 72 81 64 61 62 63 61 66 69 68 71 72 75 82
78 72 91 85 73 64 63 67 85 88 93 86 82 85 77 70 64 67 62 62 61 62 66 70 74 71 73 80 73 78 68 58 58 62 66 69 73 74 77 79 83 78 84 83
76 83 89 90 71 68 73 82 91 88 86 83 76 73 71 70 66 63 63 64 67 73 75 78 78 80 85 82 79 65 53 56 62 65 68 76 82 81 81 85 82 84 92 89
84 85 94 87 66 81 83 88 90 84 77 67 69 65 58 63 62 65 66 70 78 78 78 74 72 75 70 68 62 57 59 62 63 71 77 85 83 87 82 77 78 85 83 81

GFSCGP_925_rhum_012.txt.gz
RH
16 14 18 19 19 17 16 16 17 15 20 24 23 18 17 17 16 18 16 16 19 23 21 23 28 32 33 43 44 42 46 47 41 34 33 30 32 32 33 36 45 49 47 49
14 21 19 20 19 18 19 18 19 20 22 25 22 19 17 18 21 20 19 19 20 19 19 24 29 34 38 39 38 35 34 36 35 32 37 41 44 39 43 42 42 41 45 44
17 19 20 21 22 23 24 22 28 28 24 24 24 22 19 19 20 20 19 19 18 19 20 22 25 31 35 39 38 36 39 42 46 43 38 36 36 36 34 38 36 39 42 42
20 23 24 23 27 28 25 27 31 30 28 21 26 22 24 20 20 20 21 22 22 22 21 25 29 34 41 46 45 43 42 41 44 47 40 46 40 40 43 42 41 45 42 42
25 26 26 27 29 30 32 34 33 33 30 29 27 23 27 21 21 21 22 23 25 26 28 32 36 38 42 45 48 47 44 44 47 46 49 45 46 46 45 46 45 39 35 36
27 25 27 29 28 29 32 34 34 34 34 39 34 30 29 27 29 24 23 27 30 31 28 35 38 38 39 44 49 48 44 44 50 52 51 54 55 53 48 44 42 36 38 37
27 30 28 31 27 30 27 30 35 47 46 41 35 32 38 31 28 29 30 32 34 36 35 33 33 34 38 43 46 46 46 43 45 50 48 48 48 50 49 47 44 46 40 41
32 38 35 34 37 37 36 36 48 50 46 38 35 32 34 31 30 31 31 33 32 34 34 34 34 35 39 46 48 51 47 42 42 45 46 47 54 56 54 51 51 49 48 53
39 37 33 36 33 35 36 44 40 55 80 63 34 34 34 31 31 31 33 34 35 34 33 33 34 37 41 46 49 53 52 48 48 53 57 60 63 60 57 53 53 52 58 60
43 43 36 34 34 34 34 37 43 41 71 44 23 27 25 37 35 34 34 35 35 34 33 34 35 38 42 46 52 53 52 51 56 60 61 62 62 58 57 57 58 64 68 75
35 40 37 37 40 40 40 42 43 39 50 51 49 27 32 33 34 35 36 35 37 38 37 36 39 42 46 51 48 49 55 56 54 59 59 60 61 58 59 62 63 66 67 60
45 46 38 33 41 40 38 40 38 46 47 53 65 42 30 31 34 37 36 38 38 39 36 37 41 44 48 47 46 46 52 52 54 56 58 58 62 61 62 68 70 72 71 68
43 46 35 35 43 40 43 41 44 49 58 61 75 42 28 31 33 30 35 38 38 37 35 38 44 47 46 45 46 48 51 58 59 56 54 56 63 65 70 71 74 75 78 80
49 46 41 28 29 35 38 36 39 45 67 51 48 39 31 28 29 30 34 41 39 39 41 46 49 48 46 42 42 53 57 56 53 57 57 57 70 78 78 69 65 64 66 69
48 49 48 41 39 38 42 42 38 42 46 60 48 40 34 32 34 37 42 42 43 46 53 52 50 44 36 38 52 55 52 52 59 61 59 61 63 60 56 54 53 52 53 48
51 56 66 58 48 42 49 40 37 42 44 46 45 46 34 35 40 46 47 48 53 59 57 58 52 35 35 46 56 50 44 47 62 58 59 58 56 55 52 52 48 44 40 42
62 69 74 82 62 62 79 50 38 38 42 44 53 39 40 46 51 53 52 56 65 70 68 54 37 32 42 51 50 43 46 52 57 58 55 55 58 56 50 45 38 39 43 47
92 82 90 94 91 86 44 33 36 42 39 34 35 43 51 50 49 46 59 68 81 71 44 36 35 38 48 52 43 47 45 48 53 55 54 58 54 52 45 40 41 44 46 48
64 86 99 96 71 50 45 42 44 47 49 44 52 53 51 49 48 52 76 85 79 58 45 40 38 41 50 51 46 51 52 49 49 53 56 56 54 50 40 41 45 48 50 51
70 79 87 90 94 81 50 43 42 46 58 54 67 75 70 66 92 93 82 68 53 47 41 37 38 42 48 49 49 53 51 46 45 50 56 53 52 48 42 46 50 53 51 52
95 92 92 81 94 67 44 45 46 84 82 65 76 81 82 94 91 79 78 49 41 39 37 37 36 40 46 48 50 54 48 44 42 49 54 54 52 46 46 50 53 54 54 62
64 90 95 93 95 93 44 46 84 59 61 81 83 85 86 85 76 58 44 38 34 34 35 36 38 39 43 47 50 51 46 41 46 59 60 56 51 50 51 53 55 56 58 65
65 54 55 61 63 40 41 49 47 63 72 90 82 64 77 60 50 40 35 32 33 37 37 38 42 46 44 44 48 55 49 56 62 77 61 54 53 54 55 58 59 62 61 82
52 50 69 71 52 46 50 45 58 74 88 73 64 56 49 49 41 35 33 33 37 38 39 45 47 42 44 49 59 67 81 97 85 63 54 54 55 58 59 60 63 60 71 87
53 55 59 64 59 56 48 68 74 83 82 76 47 47 45 34 32 32 33 34 35 39 44 47 44 46 46 50 60 69 63 60 56 54 53 58 65 66 66 62 60 66 78 82
52 51 78 96 64 76 71 73 78 86 60 48 47 35 31 30 32 33 32 34 38 43 50 46 47 50 51 55 66 61 68 72 70 64 61 66 74 74 74 63 64 74 83 77

GFSCGP_925_rhum_015.txt.gz
RH
12 12 14 15 13 12 10 11 11 11 14 15 13 13 13 14 13 15 14 13 13 14 21 23 26 27 31 38 39 40 45 44 35 30 30 28 29 30 31 34 38 43 42 45
11 16 15 14 14 14 14 14 14 14 15 16 14 14 14 15 17 15 15 16 18 20 20 23 29 33 34 35 34 33 33 35 32 30 33 39 41 36 37 38 39 38 41 43
15 16 15 17 16 17 17 18 22 21 17 16 16 16 16 16 16 16 15 15 16 18 20 21 26 31 36 36 33 34 36 38 41 39 33 34 33 31 32 33 38 38 44 43
16 18 18 17 20 21 21 21 23 22 21 19 16 20 18 16 18 18 18 19 19 19 20 22 26 32 38 40 39 38 37 37 40 45 39 44 39 38 39 41 40 43 41 37
20 20 21 22 24 22 24 26 25 24 23 20 17 16 23 16 19 20 20 21 22 23 25 26 29 33 36 40 43 41 38 39 43 45 47 47 44 45 44 42 42 42 36 38
20 18 21 24 22 23 24 26 25 26 24 31 23 21 23 21 22 21 21 24 25 24 26 28 30 31 35 40 44 43 40 38 41 47 48 48 48 46 44 43 43 40 43 41
22 24 23 24 24 24 22 24 35 40 38 37 24 21 31 25 23 22 24 26 29 29 29 27 28 29 34 38 39 42 39 39 38 41 44 45 45 48 46 46 46 48 44 43
24 37 26 25 29 30 26 29 44 44 40 30 24 22 28 24 24 25 25 26 27 29 29 29 30 33 34 36 39 44 44 41 40 43 47 50 52 51 51 52 52 50 49 51
28 31 26 28 26 26 29 34 29 45 57 53 22 22 26 25 27 26 26 27 28 26 26 28 29 31 35 37 38 45 47 42 41 46 51 53 52 54 55 54 53 52 54 55
30 36 26 27 26 28 29 27 39 34 60 39 19 17 26 32 28 28 26 27 27 27 27 29 31 33 36 39 42 43 43 42 46 47 48 50 53 56 52 53 54 54 55 55
24 28 30 26 30 29 30 32 33 27 37 46 38 26 22 23 25 28 27 26 28 29 30 29 31 35 37 40 40 40 41 43 44 44 46 47 49 52 51 50 53 62 64 63
33 32 35 23 29 31 30 31 29 42 37 38 50 43 22 24 24 25 26 26 30 31 30 30 33 38 39 39 40 40 40 40 42 45 43 41 43 47 48 57 64 66 70 66
33 36 33 27 35 31 31 29 28 35 47 47 65 42 21 23 25 23 24 26 30 34 36 37 41 40 41 41 38 34 38 44 44 42 40 40 41 48 61 65 58 56 56 55
46 32 33 35 25 22 28 24 23 30 51 48 41 32 25 23 26 26 27 29 35 38 40 43 41 40 41 37 29 36 40 44 42 39 42 41 45 50 56 56 54 48 45 42
37 42 36 32 25 24 26 28 27 27 28 42 38 34 29 29 32 32 33 35 37 39 42 44 45 40 34 27 32 37 42 38 38 40 42 41 45 48 53 52 47 43 39 36
37 51 54 49 31 27 33 28 26 25 28 31 31 34 28 29 30 35 40 41 44 49 52 52 37 31 27 30 33 39 38 39 39 39 40 41 46 56 55 48 44 33 34 36
48 57 55 66 53 56 76 44 27 28 28 34 47 35 29 35 43 50 49 50 53 65 66 48 33 31 31 30 34 36 35 36 36 36 37 40 53 57 50 46 35 34 36 39
72 63 83 90 88 87 36 26 28 30 31 28 29 31 37 48 47 50 50 56 67 63 51 40 35 31 28 28 31 35 35 36 35 36 40 50 52 53 46 42 34 36 38 40
47 69 89 93 61 44 38 38 40 43 45 30 42 47 45 47 52 53 61 61 60 54 44 34 29 27 27 28 29 31 34 33 33 35 33 41 52 56 46 40 38 40 40 42
58 68 76 87 91 79 47 34 35 38 55 48 49 54 59 64 83 73 56 54 49 38 30 28 27 28 27 27 29 31 30 30 33 38 34 40 45 47 48 41 41 42 40 41
92 92 94 80 91 60 34 38 38 66 67 51 62 62 78 75 78 66 59 45 34 28 25 26 27 27 28 31 32 31 28 28 32 40 41 52 70 64 48 43 43 42 42 49
72 91 96 82 92 84 36 39 74 55 56 57 74 77 74 60 56 48 36 29 27 26 25 25 26 27 31 30 30 31 30 35 50 61 67 87 86 61 49 45 42 44 45 57
51 48 56 56 54 32 35 43 46 49 60 74 82 75 66 50 42 35 31 26 26 25 23 23 25 30 30 31 31 32 37 48 64 77 88 87 62 59 45 47 43 47 53 65
39 32 57 59 41 38 39 45 54 61 70 71 72 63 40 41 34 29 26 26 24 21 22 24 28 30 31 32 34 38 53 61 60 68 65 62 52 52 50 45 44 48 59 76
48 41 54 61 44 42 43 60 62 63 70 75 51 40 40 32 29 27 25 22 23 25 26 30 32 32 33 36 43 52 63 64 64 62 55 53 51 51 54 52 53 56 69 78
43 47 66 75 49 67 71 74 64 68 70 44 42 36 32 30 27 24 24 26 27 29 32 31 31 34 39 49 57 63 67 74 76 72 60 61 66 67 72 57 59 67 79 82

GFSCGP_925_rhum_021.txt.gz
RH
18 23 26 17 14 12 13 15 22 19 15 13 15 13 18 18 16 15 26 37 38 42 41 40 38 38 39 39 40 40 36 34 33 33 33 34 35 35 32 40 39 41 44 45
20 25 16 12 12 14 14 19 27 19 16 15 16 18 20 20 19 23 34 36 40 42 42 42 39 35 34 36 37 38 37 36 36 36 40 40 41 41 46 44 46 45 44 44
25 17 12 14 24 23 27 30 28 24 21 18 19 22 23 20 23 25 29 32 34 41 46 46 46 40 37 37 37 38 39 40 37 38 38 39 39 42 44 46 46 47 46 46
22 15 17 18 25 24 33 28 27 26 28 35 20 34 27 25 28 28 30 36 36 39 43 45 47 44 42 42 39 38 39 39 40 42 44 47 48 48 49 50 51 50 49 48
21 22 28 30 25 22 29 24 27 27 32 33 31 33 30 26 33 33 37 37 40 42 44 48 46 44 44 44 44 41 40 43 42 43 47 48 51 54 55 52 52 52 52 46
22 21 24 25 22 21 21 29 33 33 37 62 48 39 45 32 32 34 36 36 38 41 42 39 40 42 43 42 42 42 43 43 43 47 51 53 54 54 55 56 55 54 52 54
23 27 24 21 30 25 27 41 73 69 85 73 47 42 56 36 29 32 39 45 46 44 44 43 41 43 43 40 42 44 45 44 44 47 52 53 54 56 58 56 55 52 54 58
42 45 30 25 28 30 34 35 75 63 81 68 40 46 45 35 34 34 37 40 39 38 38 39 34 34 39 41 40 42 45 44 46 45 50 52 50 52 54 54 50 51 65 62
46 39 26 26 24 27 34 43 25 61 62 80 48 40 34 34 34 32 34 37 42 41 38 39 42 42 41 43 44 44 42 42 44 44 44 45 45 47 48 47 55 64 60 56
29 42 26 24 23 26 30 24 56 66 63 56 44 49 60 42 42 39 33 33 35 40 44 48 46 44 42 42 42 42 41 40 40 42 44 43 40 39 42 54 60 58 50 53
36 43 35 23 32 34 38 40 38 39 64 75 78 50 26 42 48 44 38 41 46 50 52 54 48 43 41 41 42 41 37 39 41 43 42 42 39 38 46 52 54 51 48 56
31 46 56 37 26 24 25 34 40 74 55 79 82 61 31 48 40 41 40 46 47 48 48 50 46 44 43 42 38 36 37 38 41 43 41 37 37 39 47 47 50 52 56 57
42 45 70 53 44 34 26 29 30 60 71 59 74 59 30 34 45 42 44 48 45 48 52 52 48 49 43 37 32 34 32 34 40 41 38 39 38 40 44 48 52 56 55 52
49 37 50 68 37 29 28 28 24 49 85 72 73 53 39 51 52 49 53 51 50 50 55 58 58 52 43 36 33 31 31 32 34 38 38 39 44 42 47 51 54 56 54 48
46 54 49 45 36 30 29 32 34 34 38 51 49 44 56 59 60 58 54 52 54 57 58 58 58 52 40 34 31 28 26 28 32 42 41 45 48 48 50 55 63 58 52 45
51 76 54 48 48 47 44 44 44 38 33 39 40 48 52 54 53 54 56 58 62 61 59 57 51 43 40 31 28 26 30 30 32 31 35 45 51 55 61 72 64 84 49 40
66 75 82 82 71 77 76 53 38 36 34 36 46 47 56 60 58 64 71 65 64 64 60 57 51 46 38 28 28 32 31 29 30 32 43 51 55 58 68 77 90 91 46 41
71 82 97 89 80 51 52 33 39 43 41 40 50 59 60 62 62 69 65 67 67 61 57 55 50 44 26 31 30 29 28 28 28 40 58 62 64 68 69 83 99 80 54 50
63 88 94 95 92 60 47 41 47 50 53 60 69 65 65 62 58 68 59 56 57 57 48 34 26 26 27 29 29 28 29 30 32 56 64 66 72 80 87 95 94 90 54 56
77 81 85 98 88 78 58 45 40 40 79 68 67 77 76 69 92 82 62 55 55 31 26 26 22 22 27 27 27 28 30 34 50 56 59 65 69 88 90 89 69 54 60 57
94 90 94 96 92 82 60 42 39 72 68 68 73 78 75 81 83 71 60 53 29 26 24 22 23 26 27 27 27 29 39 50 54 57 59 64 73 72 75 80 77 62 58 67
85 95 95 87 86 93 49 42 60 65 70 77 75 75 77 76 75 66 37 34 29 26 23 24 28 29 29 28 34 44 52 55 57 60 62 62 62 60 64 64 58 59 59 65
72 80 90 80 80 58 44 52 59 64 80 74 78 76 75 74 63 40 37 34 28 25 27 29 31 31 31 37 47 54 58 58 64 65 67 65 63 64 61 56 55 59 65 71
46 55 79 72 58 50 64 73 73 75 76 74 71 69 65 65 41 39 38 33 31 30 32 32 33 35 40 43 54 58 59 62 69 71 73 74 74 75 68 63 61 65 71 74
64 54 55 70 54 51 73 74 72 78 74 71 66 61 42 38 38 33 38 35 34 34 34 36 39 42 48 58 61 61 60 62 72 71 77 80 71 72 73 73 73 75 76 77
65 61 79 83 64 69 85 78 76 81 77 68 61 42 36 32 37 34 36 35 39 41 44 46 49 51 65 69 69 68 65 70 71 72 78 79 74 86 84 76 72 70 72 75

GFSCGP_925_rhum_024.txt.gz
RH
22 24 23 17 18 16 16 23 24 19 15 14 18 19 20 19 26 43 50 53 52 52 50 52 46 42 51 59 51 47 44 46 42 40 39 39 47 46 48 48 46 45 45 44
25 24 18 16 20 25 22 26 25 21 19 16 23 22 22 29 41 47 50 52 52 53 52 53 48 45 44 43 43 40 38 37 40 40 43 43 44 47 48 48 48 47 46 46
28 18 14 23 27 27 35 32 29 25 23 22 24 27 35 37 40 41 45 48 50 53 55 53 52 46 43 43 41 40 39 38 38 38 39 39 40 43 50 52 50 51 50 49
21 17 23 28 27 26 38 28 27 26 31 29 22 40 30 38 41 40 44 52 55 52 54 52 51 45 41 40 41 41 42 43 43 44 43 45 48 54 56 53 52 52 53 48
24 29 31 31 25 23 30 25 27 27 33 37 38 41 33 38 46 47 49 51 54 57 55 58 51 44 42 42 41 43 42 42 45 47 49 52 55 55 55 54 54 54 49 46
24 24 25 25 25 22 22 29 44 40 45 62 47 44 44 43 43 44 44 48 51 55 57 55 49 46 45 44 44 45 44 43 46 46 51 52 55 56 56 56 54 49 49 54
31 31 26 24 32 29 31 49 70 68 78 69 51 57 53 45 38 40 50 52 50 50 54 58 53 50 48 47 47 46 46 51 51 51 52 53 53 53 52 49 48 47 51 59
45 48 32 28 28 30 34 44 73 65 71 63 42 55 52 44 43 44 44 46 43 46 49 53 51 52 48 49 49 48 47 48 48 50 50 48 47 47 46 48 51 54 60 58
47 40 28 25 25 29 34 41 36 62 68 77 57 45 36 39 42 42 41 39 44 50 55 59 52 49 48 45 42 41 41 44 44 44 45 44 43 41 43 46 48 53 58 50
33 43 28 25 28 29 26 28 52 67 58 54 51 52 62 51 47 43 42 50 55 52 54 58 51 49 47 47 46 43 44 43 45 44 43 42 42 40 40 44 49 54 55 48
37 43 39 34 33 35 38 42 44 47 68 72 79 55 38 48 52 50 54 56 56 58 59 59 53 47 43 40 37 39 41 41 40 38 41 42 40 38 40 44 47 52 53 50
36 51 58 39 27 25 28 36 47 71 46 81 81 58 42 48 48 47 53 54 54 53 56 57 53 49 42 38 35 37 33 34 35 38 41 40 38 38 40 48 49 53 56 55
38 47 70 57 49 40 32 30 51 61 71 58 71 59 41 47 54 52 57 55 58 62 62 60 55 53 46 39 35 34 32 31 34 39 43 41 40 40 43 48 50 56 60 61
49 49 51 66 49 38 28 28 44 55 80 68 70 50 46 57 63 63 61 61 67 66 63 61 58 52 44 37 33 28 29 33 34 36 32 38 45 53 54 53 56 61 78 88
49 56 49 42 42 35 32 34 35 38 47 58 49 56 63 68 68 62 61 66 65 63 61 59 58 51 44 36 30 33 31 30 30 30 37 46 45 46 52 58 65 75 87 89
62 71 48 41 58 59 40 42 48 46 37 40 57 67 61 62 58 64 67 67 65 62 60 58 55 50 46 47 35 31 29 29 28 31 48 54 55 60 62 66 65 84 88 86
68 74 71 61 77 67 69 51 42 36 41 40 51 58 65 64 69 76 73 68 66 61 60 60 57 53 49 34 30 29 28 29 30 48 58 58 56 57 62 69 89 94 98 90
74 92 93 74 70 40 41 43 38 45 48 64 66 68 65 65 72 74 68 68 66 62 55 55 42 33 32 30 28 28 29 32 47 57 58 58 60 62 82 80 98 99 97 73
67 87 98 69 86 48 43 48 48 45 54 66 70 72 69 74 71 69 59 56 57 58 50 34 26 28 28 27 28 29 34 43 49 53 55 58 63 70 78 96 77 81 78 66
80 78 76 98 61 52 42 47 44 45 77 71 73 80 77 72 84 77 66 54 53 35 29 24 25 28 28 28 30 35 43 50 56 57 59 61 67 68 77 85 86 86 71 69
95 94 95 99 90 78 55 47 43 72 61 78 77 81 81 77 77 69 66 53 32 28 25 26 28 31 30 36 37 44 50 55 57 60 62 63 63 62 61 72 74 73 73 73
86 94 98 98 98 77 55 51 59 62 76 79 83 80 80 77 76 71 43 34 30 28 29 31 32 33 37 41 43 51 54 57 59 64 67 68 69 65 59 58 62 66 67 69
61 67 81 76 77 55 54 51 54 74 82 80 80 79 76 78 71 42 43 38 33 34 33 34 36 38 40 48 55 57 58 59 65 68 72 73 75 74 68 62 64 69 72 74
58 65 85 72 57 62 56 74 74 75 80 76 74 75 74 71 47 44 41 40 38 36 38 41 44 48 49 58 64 66 65 63 69 72 71 73 76 71 73 69 73 74 76 77
61 62 64 76 61 73 78 74 79 79 77 73 67 64 60 48 42 42 41 42 42 44 47 48 54 58 60 67 69 68 71 69 74 73 73 71 76 80 85 79 80 78 74 81
71 60 79 82 58 59 78 82 80 82 77 69 66 47 38 37 42 38 46 46 50 52 51 58 63 65 71 75 75 71 75 81 91 80 76 75 69 78 92 82 76 73 75 80

GFSCGP_925_rhum_027.txt.gz
RH
23 26 23 17 18 16 17 23 23 20 17 18 18 25 37 30 52 68 68 65 64 64 62 66 67 79 83 81 75 75 75 65 46 44 45 45 49 47 48 47 46 46 46 46
26 25 19 22 29 23 25 26 24 22 24 21 26 38 51 53 59 62 63 62 62 64 61 60 56 57 55 52 46 42 40 39 40 41 44 46 48 49 48 48 47 48 49 50
26 19 21 24 30 33 36 31 29 25 26 25 27 36 51 49 55 54 59 60 57 58 61 65 65 52 46 41 37 37 37 37 38 40 40 45 51 53 52 52 52 53 53 50
22 28 27 29 28 32 35 29 27 27 28 31 25 49 44 44 52 55 61 66 64 60 66 64 64 54 44 41 40 40 40 41 40 40 39 40 42 52 58 54 55 55 51 46
27 30 30 30 26 25 30 28 28 29 37 39 43 50 44 47 55 56 59 64 63 62 59 65 56 49 48 49 47 46 47 48 48 47 46 46 50 53 55 55 55 51 48 46
28 25 25 26 26 24 23 35 46 52 49 63 50 45 52 54 54 56 54 57 58 60 59 55 52 50 52 52 47 46 48 50 49 48 51 52 53 56 56 53 48 44 44 44
34 33 30 27 31 29 35 48 69 69 76 71 49 56 53 44 44 48 58 58 58 60 63 64 60 58 56 55 52 48 47 48 50 51 53 53 53 53 48 44 42 41 42 43
48 47 33 28 29 32 37 43 73 59 71 63 48 60 56 50 49 49 50 54 55 55 56 60 61 58 54 51 50 50 51 50 52 51 51 49 45 44 43 42 42 43 45 49
46 39 29 26 26 31 35 45 40 70 72 79 64 48 43 46 53 51 51 50 54 59 65 65 59 53 48 45 44 46 48 53 55 51 47 44 43 43 42 43 46 45 49 55
40 45 31 26 29 29 28 35 55 68 57 56 54 59 67 54 56 52 55 62 64 65 64 64 57 50 49 47 42 41 45 46 44 40 36 39 43 44 42 43 43 46 48 56
38 40 38 35 35 37 39 41 50 54 70 72 77 60 42 53 55 56 64 65 64 64 65 64 54 48 45 40 35 39 44 40 37 38 39 42 44 44 43 44 44 48 54 67
40 53 60 40 34 33 32 38 45 62 45 83 79 60 39 53 55 57 59 60 65 68 63 60 54 46 41 40 37 40 38 37 35 42 47 47 44 42 44 52 54 60 67 67
38 50 69 53 47 37 34 37 60 62 70 61 71 57 49 56 55 58 65 65 69 67 66 60 56 54 48 40 36 36 32 34 37 40 34 32 34 36 39 38 40 48 54 61
47 56 50 60 46 43 32 32 51 52 77 66 67 44 51 63 66 65 64 70 72 70 64 62 59 53 45 37 39 35 36 32 30 29 29 35 44 47 48 53 56 58 60 67
48 53 49 49 51 37 32 35 44 46 50 54 48 58 49 70 72 69 67 73 71 66 59 57 57 52 48 50 38 33 30 29 29 30 38 49 52 48 47 48 50 65 81 94
65 69 44 48 64 61 42 38 41 44 44 55 47 63 64 67 64 69 72 72 69 61 57 54 54 55 57 38 32 30 28 29 31 33 48 52 47 52 57 64 71 82 100 100
66 73 59 48 76 53 50 44 50 44 42 46 70 61 74 69 69 78 79 72 69 64 60 59 59 52 37 32 30 29 28 30 32 45 52 50 59 60 62 76 89 98 92 89
76 91 84 66 68 42 36 44 43 41 46 56 66 74 67 67 70 74 73 74 73 67 60 53 39 37 33 30 28 28 30 33 45 52 53 58 59 60 64 85 95 98 98 88
71 88 96 74 73 44 33 50 52 50 51 67 69 72 68 78 73 72 70 66 66 63 55 33 28 31 29 28 29 31 34 45 50 54 57 59 61 67 70 78 88 87 88 83
76 74 71 97 57 46 35 51 46 43 70 72 71 78 80 85 95 80 73 64 60 39 28 26 28 30 31 32 35 38 46 50 53 57 58 62 64 63 63 66 82 88 86 75
96 95 87 100 80 68 48 49 43 57 51 79 74 76 85 87 78 66 72 62 40 27 27 29 33 35 37 39 41 44 48 52 55 58 61 65 66 68 64 66 78 81 78 74
93 96 98 98 95 69 52 50 60 58 66 79 81 82 80 72 75 76 63 41 30 31 33 35 36 37 41 44 50 52 56 59 60 63 68 70 72 72 66 59 65 71 70 70
71 66 80 75 74 52 54 52 54 68 77 82 82 81 76 81 78 60 45 40 37 36 36 39 42 46 48 49 58 63 66 66 66 70 73 73 73 76 74 68 69 72 72 74
66 63 81 68 49 62 58 60 67 74 74 80 77 77 77 76 56 48 45 45 40 40 44 46 50 57 59 58 65 70 71 70 71 78 78 78 72 72 79 75 76 75 76 78
68 72 68 80 67 70 73 75 76 80 80 78 76 76 75 63 49 47 47 46 46 49 50 52 62 65 65 73 76 70 78 74 69 76 88 96 79 72 87 83 84 79 78 84
73 68 80 76 60 65 59 76 81 84 80 76 68 49 45 42 45 43 50 49 53 53 56 63 63 66 77 78 71 71 81 89 86 87 93 97 92 74 89 95 84 76 76 82

GFSCGP_925_rhum_030.txt.gz
RH
24 26 24 19 19 16 19 20 21 22 18 24 51 61 64 48 63 73 76 78 78 76 70 76 89 95 92 92 86 84 85 73 63 54 48 48 50 48 46 46 46 46 46 48
27 26 21 27 26 27 26 27 25 24 26 28 48 55 65 66 67 71 77 77 75 71 71 71 64 70 73 78 81 84 73 60 49 44 42 42 44 47 47 48 48 50 51 51
28 21 24 27 32 33 35 30 29 27 25 29 32 42 60 55 66 67 69 67 65 68 73 73 70 58 58 55 47 46 46 41 38 36 38 42 46 50 52 52 52 53 53 49
28 29 27 28 30 32 32 30 28 30 28 38 29 42 50 56 66 69 69 70 68 66 71 73 67 55 45 44 40 39 40 41 42 43 42 40 45 53 56 54 55 54 47 46
29 29 30 31 28 26 30 32 32 33 42 41 45 50 53 62 69 70 70 69 68 72 73 68 60 52 45 44 45 43 43 43 43 43 44 46 49 53 54 55 54 49 42 40
32 27 27 27 30 27 30 41 49 55 52 63 52 46 52 65 63 64 63 67 68 68 61 62 57 54 51 48 46 46 47 48 49 49 49 51 52 54 56 53 48 45 43 40
37 35 32 29 32 31 41 50 70 70 76 72 50 53 49 46 52 58 64 68 66 66 69 69 65 62 61 57 49 49 53 51 52 53 54 55 53 49 44 41 39 42 42 40
48 46 32 29 30 36 39 44 73 57 77 68 50 61 53 53 47 53 58 60 64 68 67 66 64 62 59 55 53 54 52 51 53 53 52 46 42 42 41 42 44 44 43 44
46 40 31 27 28 32 39 47 43 72 72 80 68 53 50 56 59 59 60 60 64 63 65 67 63 60 60 55 49 50 48 52 55 50 42 41 44 48 51 52 49 48 46 47
42 46 33 28 30 33 29 42 53 68 56 53 58 61 70 62 64 60 60 63 62 68 71 71 64 59 55 49 43 44 52 51 46 44 47 50 50 50 49 47 45 48 53 58
39 41 40 35 37 40 41 44 53 58 70 68 75 68 51 59 59 61 62 64 71 73 72 68 58 52 45 38 36 42 46 42 38 41 46 49 47 40 33 36 37 32 34 42
42 52 59 41 33 38 34 38 43 59 42 84 79 60 44 57 56 58 64 68 71 74 69 63 54 46 43 41 39 41 37 37 35 41 45 33 31 31 35 38 44 50 47 47
41 51 68 48 39 36 36 46 57 59 70 66 73 53 53 60 61 60 72 76 75 73 67 63 58 53 45 38 41 39 35 38 35 30 29 29 35 42 43 42 42 42 49 66
49 56 51 56 40 43 37 45 51 48 73 64 68 42 50 60 62 69 74 77 76 73 66 64 60 52 48 43 38 36 36 31 30 28 32 40 46 46 44 45 46 49 60 76
45 51 49 54 56 41 32 37 55 49 47 50 44 57 45 59 69 71 74 78 76 71 65 60 60 55 52 52 41 34 31 29 29 30 39 51 51 48 48 49 57 66 84 99
62 65 43 56 66 61 46 40 44 47 44 57 50 53 50 65 73 75 76 78 75 69 63 58 54 57 57 40 34 31 28 28 31 36 52 55 48 49 53 58 73 80 89 84
63 71 62 60 72 53 51 49 49 47 52 48 56 49 76 72 75 79 82 78 75 70 64 59 58 49 39 33 30 28 28 31 35 45 55 48 52 56 62 68 92 80 96 97
72 73 76 65 66 47 34 41 44 48 46 50 53 59 74 68 70 72 77 78 77 72 64 58 43 38 34 31 29 29 31 34 42 52 48 52 59 65 68 70 89 96 84 93
68 79 94 69 70 42 26 44 55 52 48 60 59 70 71 80 72 70 77 74 74 70 60 47 32 34 32 30 31 33 35 40 47 48 54 59 65 64 64 64 65 81 98 100
71 70 69 94 55 44 35 40 45 41 67 56 66 77 83 78 89 74 76 72 66 60 42 29 31 31 32 33 36 38 40 45 52 55 59 62 64 66 66 64 66 81 94 86
97 97 81 100 74 64 45 45 43 57 53 74 70 77 89 82 76 66 76 68 57 36 28 30 33 34 36 39 42 46 51 56 60 62 62 65 67 69 70 64 66 81 86 81
89 96 98 96 93 68 49 50 57 58 55 72 76 80 77 75 76 80 74 46 34 34 36 35 36 40 43 46 50 55 60 65 67 66 69 73 72 73 77 74 69 74 79 74
71 68 82 74 73 51 50 56 54 59 59 74 77 78 74 78 81 62 48 42 38 36 38 40 44 48 50 53 59 64 68 73 72 68 75 79 81 85 73 75 75 77 75 73
69 63 77 65 46 62 62 57 66 64 68 72 76 80 78 80 70 50 54 62 44 42 45 47 51 57 60 61 69 75 71 64 76 69 71 77 86 91 73 85 79 78 75 75
71 68 67 76 68 66 65 73 62 74 76 79 79 78 79 64 60 70 67 48 45 48 50 52 62 66 64 74 75 69 70 73 83 82 84 85 94 98 76 85 83 88 85 82
74 69 79 73 52 54 54 56 77 81 84 82 78 72 62 68 67 50 51 49 52 53 54 62 65 68 73 76 76 78 81 84 95 96 90 88 96 98 85 89 94 95 90 80

GFSCGP_925_rhum_033.txt.gz
RH
25 20 20 18 18 15 18 20 19 20 20 37 50 54 53 47 54 58 59 59 60 62 70 83 94 98 100 100 90 84 78 79 90 95 65 54 52 50 48 47 47 47 49 51
24 26 21 29 22 25 24 25 27 26 26 32 45 51 58 57 61 59 59 62 63 68 72 79 86 96 98 95 86 94 81 75 73 58 52 49 49 49 50 50 50 52 51 41
29 23 25 29 30 30 32 30 30 27 26 30 33 36 52 56 62 63 64 63 66 70 70 72 82 90 98 99 97 88 73 62 54 49 47 47 50 53 56 54 53 54 38 36
31 29 27 29 31 30 35 30 29 28 25 27 29 25 44 56 65 67 66 66 67 65 65 66 68 70 69 72 70 65 55 53 50 49 48 46 55 59 57 53 55 43 39 38
32 30 30 32 30 27 36 35 34 34 36 36 38 30 36 60 65 69 66 62 60 61 59 57 53 54 56 51 48 46 46 50 49 48 48 49 51 54 54 55 47 39 41 42
34 29 30 29 35 31 40 39 43 46 43 45 49 37 33 55 56 64 62 59 57 61 57 54 54 57 58 62 52 50 52 50 51 51 52 52 53 53 49 42 40 40 43 42
36 36 32 30 33 33 37 40 50 55 60 54 48 49 37 40 47 55 59 55 56 58 54 52 54 58 59 55 52 52 50 51 52 53 53 53 47 42 40 42 50 49 50 45
41 40 32 30 32 35 40 40 58 53 62 55 45 51 38 47 40 48 50 50 54 56 56 54 57 59 60 56 57 52 52 54 55 53 50 42 40 44 48 52 54 54 56 57
45 40 31 30 31 32 41 39 41 62 70 61 48 46 40 51 48 50 50 54 53 54 56 56 60 64 65 62 55 56 54 54 54 50 44 44 48 53 52 49 46 46 45 38
43 45 34 30 31 36 33 39 45 50 54 46 42 49 41 53 53 51 52 53 52 54 56 59 62 65 62 57 51 49 52 54 51 47 46 49 50 47 40 33 35 30 29 35
40 40 40 37 36 38 40 43 50 47 52 42 48 32 45 45 49 52 49 49 54 54 58 60 59 60 54 43 41 47 49 48 45 44 47 45 35 30 29 33 34 35 38 40
42 50 54 41 35 38 36 40 42 47 41 64 57 38 36 47 47 50 49 54 56 58 58 54 52 50 46 45 46 49 45 38 34 39 33 30 28 30 34 36 38 42 47 62
45 52 57 43 34 36 39 43 45 50 59 58 73 34 42 52 53 50 50 59 63 60 56 53 52 48 46 48 50 42 35 35 31 30 28 28 32 37 41 44 47 50 72 82
49 52 49 50 38 41 43 51 45 43 56 49 51 34 33 49 54 57 59 62 61 59 56 51 51 48 47 43 39 36 36 32 30 27 28 34 44 47 49 51 52 53 70 93
45 47 49 53 53 46 35 42 50 42 43 46 37 42 32 36 48 53 61 65 64 61 57 53 50 50 50 51 44 38 32 30 28 30 35 50 52 50 53 54 53 58 81 91
57 60 48 58 60 56 49 40 42 50 46 45 45 43 35 44 54 60 64 66 64 61 57 54 52 51 55 51 41 33 30 28 30 35 41 56 50 54 54 56 68 83 93 96
58 66 59 57 60 47 54 46 42 43 43 40 45 33 58 61 62 58 63 64 63 61 58 52 52 55 51 39 32 31 28 30 33 38 54 52 54 54 58 73 83 84 94 92
64 61 65 61 62 42 31 43 40 41 38 41 42 48 53 55 61 62 59 62 64 62 57 56 54 45 39 35 30 29 31 33 36 50 52 53 56 60 70 74 74 78 93 99
58 68 77 67 54 38 23 36 47 52 35 40 41 52 63 67 61 60 64 61 60 60 60 54 41 40 37 31 30 33 36 38 46 52 53 58 61 72 74 73 74 77 88 100
63 63 66 76 50 45 32 31 46 42 55 43 49 65 71 63 71 49 63 65 64 64 58 40 39 36 31 32 35 38 41 46 54 56 63 65 70 72 76 76 75 80 97 100
92 93 78 79 68 57 41 38 45 50 46 59 59 63 72 67 61 59 65 66 61 49 35 36 34 36 36 38 40 45 50 56 61 67 68 71 74 74 74 76 78 76 84 92
76 89 93 90 79 65 45 50 55 51 50 57 64 66 71 66 67 70 67 53 38 34 37 39 40 42 43 45 47 55 60 63 69 71 69 68 80 79 82 80 76 79 85 88
67 64 70 64 63 49 45 55 53 56 55 56 67 65 66 72 71 62 49 37 36 42 52 43 45 48 50 51 56 65 68 72 66 68 76 68 76 82 87 81 77 78 82 83
68 62 67 63 46 55 53 50 54 55 59 58 64 65 69 68 68 48 42 56 64 53 44 48 50 56 60 56 64 72 71 67 70 81 82 81 82 81 94 87 80 80 83 84
64 65 65 67 59 55 52 60 58 58 67 68 69 71 70 68 50 47 67 63 50 51 54 53 60 65 61 64 71 72 74 77 86 88 88 89 88 92 96 91 83 84 90 93
69 64 74 70 49 49 51 53 66 71 71 72 75 72 60 52 62 65 61 54 54 56 56 64 65 63 71 71 72 73 76 91 97 97 93 93 97 97 99 93 86 88 88 89

GFSCGP_925_rhum_036.txt.gz
RH
19 18 14 11 11 10 10 14 12 12 15 13 15 18 22 30 34 32 33 35 36 38 45 56 67 71 67 81 92 90 92 85 83 65 99 82 64 64 60 57 61 60 60 53
19 17 18 18 16 15 14 15 18 19 16 17 22 24 28 28 33 33 34 35 38 42 45 59 68 77 84 79 80 96 91 84 92 86 70 55 54 54 54 55 61 60 53 48
16 20 21 17 17 18 20 18 21 18 20 20 22 25 32 36 39 42 42 37 38 41 48 58 68 73 82 84 87 85 84 80 66 56 57 59 59 58 53 54 54 56 53 49
21 22 21 20 20 21 22 22 20 20 19 19 20 18 26 34 34 41 44 46 45 48 52 58 60 70 73 72 71 62 59 57 57 58 49 48 42 44 48 53 55 48 54 51
25 22 21 20 23 23 27 22 21 20 20 23 22 20 21 34 36 37 42 46 50 52 52 48 44 49 53 63 62 54 54 53 56 56 54 54 52 55 55 56 51 48 49 54
24 22 21 23 26 23 28 27 27 26 25 29 22 25 13 17 25 37 43 50 51 49 45 40 37 40 44 49 54 55 51 52 56 56 59 57 56 52 47 43 41 36 40 44
25 26 24 24 26 28 26 24 25 33 35 30 34 30 16 26 29 34 45 49 48 45 40 36 37 40 46 51 55 54 51 54 59 59 57 56 51 46 42 45 42 48 43 46
23 32 24 25 25 22 25 23 25 26 32 29 34 33 26 32 29 33 37 42 42 41 37 34 37 41 44 48 51 50 49 52 55 56 53 52 50 46 45 49 54 52 51 50
26 28 24 26 25 24 29 27 30 42 56 47 25 27 26 33 33 36 39 40 40 36 36 36 40 43 46 49 53 54 51 51 57 59 58 57 53 52 51 53 50 45 44 41
29 33 26 27 25 28 28 27 34 34 43 30 20 23 17 35 35 36 41 41 36 33 35 38 42 49 51 50 56 56 53 53 48 48 56 51 51 49 46 44 43 43 41 41
26 26 34 30 28 25 34 32 31 28 35 26 23 14 25 27 30 33 36 36 33 34 38 40 44 50 51 48 47 49 54 54 52 52 53 50 43 42 42 41 42 43 47 46
32 31 40 31 29 28 27 28 27 27 30 42 42 20 21 28 31 32 31 33 32 36 38 42 47 48 45 41 42 49 51 47 46 48 43 40 37 39 42 42 44 48 52 52
32 35 41 38 32 30 30 29 26 31 36 36 56 18 22 28 31 31 33 33 37 41 43 43 45 43 40 40 45 46 46 45 39 34 33 35 39 41 42 45 51 54 55 59
33 36 32 34 27 27 35 33 29 26 35 24 28 14 18 23 28 28 33 35 40 44 44 41 40 40 39 42 43 42 44 39 35 31 30 34 42 46 49 54 56 56 61 64
34 36 36 34 33 32 28 28 31 28 24 32 18 19 12 15 18 22 31 36 40 45 44 42 40 39 38 38 38 38 38 36 33 31 32 35 48 54 54 58 58 60 68 68
40 41 42 44 41 38 36 29 26 28 25 27 23 23 16 18 23 29 38 42 43 44 43 42 40 40 37 39 40 38 34 32 33 34 35 43 55 55 56 58 59 62 66 66
43 49 44 38 42 39 62 37 27 25 28 29 30 23 20 27 29 29 35 41 42 43 43 42 40 39 39 41 36 34 30 34 36 34 42 52 54 55 53 55 56 57 60 65
49 45 57 56 59 74 18 23 25 27 24 21 23 20 23 23 30 34 32 36 42 42 43 42 41 40 41 34 32 31 30 33 36 40 47 50 53 52 53 56 57 60 64 67
37 45 70 82 38 25 15 22 25 29 19 20 20 20 27 40 43 39 38 38 41 42 43 43 42 40 34 32 31 30 33 35 41 43 45 47 50 53 54 57 62 64 62 62
44 45 50 65 86 87 27 31 36 33 31 25 31 31 42 43 47 22 39 44 44 44 45 45 38 34 32 30 33 34 34 38 38 46 48 50 53 55 57 61 65 64 64 64
82 83 86 69 83 45 26 25 36 38 30 32 38 37 43 45 30 42 39 46 46 48 45 37 35 31 31 37 38 36 37 39 45 52 55 52 52 57 63 66 64 62 63 66
59 77 92 75 94 78 31 40 47 38 36 35 40 40 46 41 50 49 48 49 46 40 35 31 33 42 46 42 42 34 39 46 54 58 55 54 57 64 66 64 63 63 63 66
52 46 47 45 40 33 33 36 36 40 42 40 42 38 47 49 50 51 50 46 36 33 31 43 50 53 48 46 45 41 40 58 60 58 56 58 63 66 63 62 63 64 61 64
46 46 50 50 31 33 33 32 31 32 38 38 36 40 43 47 48 49 42 37 36 49 50 48 55 42 47 54 57 54 60 62 62 61 60 62 64 62 62 61 68 66 65 69
46 48 46 48 36 31 31 34 41 44 44 46 45 52 53 52 54 43 42 53 52 54 70 60 45 42 40 53 60 60 62 66 65 65 65 68 67 66 64 62 66 69 71 74
47 49 56 52 46 47 42 44 49 53 52 54 56 58 56 53 46 48 58 56 70 81 64 45 47 54 55 63 59 61 65 73 77 74 71 68 71 71 71 70 67 71 81 77

GFSCGP_925_rhum_039.txt.gz
RH
19 20 18 13 12 11 10 9 8 8 8 9 9 12 16 19 18 21 24 25 25 25 26 37 40 38 36 52 73 77 88 92 82 70 83 87 83 68 62 59 58 60 57 51
17 18 13 10 10 10 9 12 13 11 9 10 9 12 14 16 17 17 20 24 25 26 33 40 48 47 45 60 76 84 86 91 82 66 71 72 62 58 52 53 58 56 52 47
24 18 15 12 11 12 12 14 20 14 13 11 12 14 18 18 18 20 20 20 23 28 35 40 47 56 62 68 70 75 77 72 67 66 56 51 50 51 51 52 56 54 50 45
29 22 15 13 12 13 18 16 14 14 17 17 13 17 16 20 24 28 29 28 25 29 31 39 48 58 64 66 68 62 58 58 56 49 46 46 40 40 40 44 46 50 52 48
18 17 15 13 16 16 24 17 15 13 13 16 16 14 22 18 22 26 26 31 31 31 37 42 46 58 61 60 58 51 51 47 47 47 43 46 44 47 49 48 51 51 46 44
31 16 15 17 18 17 19 19 18 16 15 25 16 16 14 18 17 20 25 30 33 37 40 38 44 43 43 49 50 47 44 44 48 48 50 50 50 46 46 46 42 37 34 34
18 17 19 17 19 19 18 19 30 32 26 28 21 20 14 15 20 18 28 32 37 39 38 34 35 36 42 47 49 48 44 45 49 51 52 51 50 46 41 41 37 37 36 37
20 29 19 18 18 20 20 18 26 29 25 21 22 18 19 21 22 22 27 31 36 38 37 31 30 32 38 45 48 45 44 46 51 52 48 48 46 41 41 38 42 40 41 40
27 24 19 19 19 17 20 21 21 26 46 37 16 13 22 22 24 26 30 34 37 37 34 29 30 32 37 42 46 45 44 45 48 48 49 50 46 43 38 43 43 38 40 37
18 26 19 22 20 21 22 19 26 24 36 29 14 13 16 24 23 26 31 35 35 33 31 29 30 35 38 42 47 48 46 46 48 48 51 46 44 43 40 39 39 40 40 40
15 18 28 24 23 17 26 25 22 22 26 31 22 15 13 16 19 24 27 30 32 31 29 30 32 37 40 44 50 52 46 45 48 48 49 45 42 39 38 38 39 38 41 41
20 20 25 23 22 21 20 20 22 33 25 28 38 23 13 16 16 20 23 26 29 28 27 29 33 38 43 46 46 47 43 44 43 45 47 48 38 34 36 38 37 39 44 43
24 21 27 28 26 24 24 20 19 20 27 29 46 23 14 16 16 17 19 22 26 27 26 30 34 39 42 42 41 43 42 41 42 47 40 33 33 36 35 34 39 44 45 45
34 20 23 30 22 21 30 24 22 23 36 28 21 16 13 15 16 14 18 19 22 26 29 31 35 38 39 38 40 41 41 44 43 37 29 26 32 36 36 38 44 47 47 52
30 32 24 22 23 24 23 21 21 24 23 30 20 16 10 8 10 12 14 18 22 28 33 35 36 36 37 37 40 37 44 43 36 31 27 28 33 39 40 46 50 48 51 56
29 34 34 39 28 29 28 23 20 17 19 18 16 15 11 13 11 14 15 19 22 27 33 34 34 34 36 37 38 38 40 36 33 29 31 31 34 41 43 47 49 47 49 51
36 37 41 38 32 30 53 31 22 18 17 18 24 17 13 16 18 18 17 21 23 26 31 34 34 35 36 36 36 38 34 32 33 31 31 32 40 42 42 42 44 45 48 53
42 42 48 48 62 76 17 15 15 20 17 14 14 14 13 13 19 21 19 21 26 27 30 33 34 36 37 36 38 32 35 36 32 32 31 34 40 41 40 41 44 48 53 56
30 39 58 79 37 25 18 13 19 20 18 15 17 15 14 21 28 25 24 24 25 28 30 34 36 37 37 36 31 34 31 29 31 33 32 34 36 39 40 42 44 53 53 53
33 35 42 52 82 88 29 23 24 23 29 19 19 19 20 26 35 27 27 28 30 32 34 36 38 38 35 31 32 30 36 35 30 30 37 35 38 40 41 44 48 54 53 51
70 74 75 60 76 47 23 22 26 35 39 27 25 23 26 28 35 36 28 30 31 33 36 39 39 34 32 31 35 44 37 33 32 40 41 42 41 41 46 51 55 55 52 55
58 72 88 68 93 79 22 27 36 38 26 28 29 27 36 34 36 39 36 34 35 37 39 36 34 30 36 51 45 40 30 32 41 45 47 44 44 48 52 54 55 53 52 56
45 38 44 40 39 27 23 24 24 26 31 30 31 31 32 36 36 36 39 40 38 36 32 31 34 51 58 56 44 35 36 48 46 51 51 48 48 50 53 54 51 51 57 59
33 35 39 36 24 23 23 25 26 29 34 33 34 35 35 37 37 38 41 38 34 30 35 53 71 76 71 57 46 43 56 58 58 54 52 51 52 53 55 55 49 51 63 70
38 36 34 38 28 30 26 34 42 44 42 40 39 42 48 46 43 44 38 35 39 54 81 88 77 58 38 42 52 54 57 59 57 53 54 58 62 61 57 53 51 56 64 72
35 40 52 48 45 52 45 48 51 50 51 50 50 48 43 43 42 40 47 64 90 99 86 64 46 45 46 51 55 54 57 56 60 64 65 66 69 66 63 60 64 69 70 72

GFSCGP_925_rhum_042.txt.gz
RH
21 23 25 20 16 16 14 14 14 9 9 10 10 12 11 15 18 23 22 22 21 21 20 27 28 27 41 70 81 83 92 92 84 80 75 81 74 75 67 62 58 60 60 53
33 23 17 19 16 15 12 18 16 8 8 9 10 10 13 13 16 21 24 26 26 25 23 34 35 35 52 72 74 87 86 91 88 75 68 71 72 68 61 58 59 59 54 48
30 24 25 14 14 12 12 27 25 22 11 7 10 10 14 14 14 16 20 22 24 26 32 38 40 42 42 70 77 85 89 86 82 60 70 71 61 57 56 56 59 57 53 48
32 31 25 20 12 12 22 24 19 19 18 17 23 26 16 16 16 17 18 21 23 24 32 36 42 48 54 71 76 80 80 76 71 64 56 54 51 51 50 52 56 55 52 50
44 44 26 22 17 14 28 24 24 14 14 30 29 35 33 19 21 19 22 22 23 25 30 35 42 54 57 66 69 76 69 60 57 52 46 47 46 46 46 47 54 54 51 48
34 26 22 16 15 14 23 24 19 16 20 40 38 42 32 28 32 33 22 25 26 28 30 35 52 58 59 67 69 59 54 52 49 46 45 46 47 46 48 48 50 45 41 36
20 17 16 16 17 16 16 18 36 82 80 40 13 18 16 32 23 21 24 26 29 32 37 40 45 51 53 54 55 52 47 45 47 47 50 51 52 49 44 42 46 39 38 38
21 30 17 15 16 38 29 19 58 60 78 37 20 22 20 19 17 18 22 25 32 38 41 39 42 42 46 50 50 46 44 45 48 50 52 51 49 45 43 45 42 42 40 41
32 34 30 17 14 23 27 22 21 25 48 56 21 12 22 19 21 22 25 29 37 38 38 36 37 40 44 47 49 46 43 44 50 51 50 48 46 43 43 42 44 41 41 39
36 60 39 21 17 17 18 15 28 24 38 38 18 15 33 24 22 23 29 34 37 36 36 34 32 36 39 45 47 47 45 48 50 49 50 50 48 44 42 45 41 40 42 42
33 56 49 22 22 15 24 25 18 16 28 46 49 23 14 16 18 22 27 32 36 37 36 34 31 33 37 42 47 49 47 47 49 48 52 46 45 45 46 40 38 41 40 43
18 22 34 26 17 17 17 21 20 56 36 37 52 35 13 15 15 19 22 26 31 33 33 31 31 34 37 42 47 50 48 47 47 48 48 46 46 44 39 37 39 38 43 45
20 27 39 26 21 20 22 17 16 20 33 39 70 35 13 13 13 14 17 21 27 31 30 30 32 34 38 43 48 50 48 45 46 44 48 47 44 35 35 36 36 40 45 46
33 24 24 36 21 20 26 23 18 22 59 43 40 21 13 14 16 14 17 18 20 28 28 28 32 35 41 43 45 46 45 43 42 46 46 40 35 34 36 36 39 44 48 48
27 28 22 17 17 18 24 22 20 21 23 37 32 21 14 13 14 13 13 17 18 19 24 26 32 39 40 42 41 42 43 43 46 43 35 32 31 37 39 40 46 49 48 50
28 36 34 36 26 24 26 22 19 18 19 17 18 19 13 12 15 16 16 14 15 18 23 28 32 34 38 39 39 41 40 46 43 36 32 31 32 36 40 42 46 48 46 47
33 46 52 55 34 33 51 33 24 20 18 19 26 20 15 15 14 17 17 18 18 22 23 30 32 34 35 37 38 39 40 41 35 34 34 32 34 40 41 42 41 41 44 49
39 47 67 71 63 67 23 15 14 16 14 12 13 15 14 22 20 19 19 20 24 23 25 27 31 33 34 36 37 38 38 33 36 36 33 32 36 40 41 39 40 42 46 54
31 53 74 92 54 32 23 17 18 20 20 17 18 17 16 19 22 28 21 26 27 27 26 28 30 34 36 36 38 35 36 36 33 37 39 32 36 39 43 42 41 44 49 53
30 41 71 68 81 83 33 22 19 19 38 23 23 25 24 21 48 41 29 27 26 24 27 30 33 36 38 36 32 35 32 35 36 32 41 44 45 41 41 43 46 51 54 55
74 80 86 74 87 62 25 22 23 44 53 30 29 29 32 37 44 40 36 30 28 29 32 37 38 37 33 33 34 46 51 53 50 49 46 44 44 45 45 47 50 54 55 55
75 84 96 79 99 89 21 23 40 42 33 32 31 33 39 38 38 36 34 35 34 35 37 36 36 47 54 56 59 58 58 46 47 54 61 56 55 55 53 52 54 55 56 56
52 45 61 58 62 32 22 26 25 30 33 37 39 35 35 37 35 34 39 39 37 33 32 34 52 59 67 69 66 64 55 50 52 66 75 72 62 55 51 52 55 56 54 56
31 32 47 41 24 24 23 26 37 39 43 38 37 39 47 50 46 41 41 38 46 60 64 75 79 83 83 68 52 47 47 44 70 67 63 60 54 54 55 57 57 57 54 60
40 34 33 35 31 29 39 47 51 47 46 47 45 45 45 45 45 41 43 56 75 82 83 77 72 61 47 51 62 52 55 61 63 64 58 57 64 66 68 64 58 56 60 66
34 38 64 65 49 53 60 49 45 48 48 46 47 50 50 51 63 79 88 88 82 76 69 62 61 61 64 56 51 53 55 59 57 60 65 68 69 73 75 74 74 66 70 70

GFSCGP_925_rhum_045.txt.gz
RH
50 36 37 30 28 19 19 21 20 18 16 21 26 26 27 25 32 35 34 34 33 31 32 35 37 50 67 72 74 79 80 76 70 69 77 79 78 76 71 66 54 51 55 54
45 57 31 21 23 23 22 23 23 20 12 11 15 18 20 22 30 31 32 31 29 31 34 34 37 60 78 80 82 83 79 72 68 69 66 66 66 71 66 56 56 58 58 50
54 43 32 22 26 25 30 33 26 30 28 18 13 17 17 18 20 29 29 29 29 31 36 42 46 74 84 88 87 82 78 70 70 71 72 68 68 66 60 59 61 62 52 49
38 30 30 29 30 24 34 23 27 26 33 35 24 37 24 20 20 25 30 31 34 40 45 42 48 82 84 89 91 93 85 82 76 81 71 71 61 64 61 56 59 59 53 48
41 40 33 36 30 23 27 25 27 30 30 33 32 44 34 25 23 22 25 32 34 35 46 47 52 73 81 85 88 84 83 78 74 76 70 57 58 57 56 56 60 56 52 51
28 29 27 30 28 26 23 25 29 48 47 48 33 36 45 28 26 29 21 25 33 47 46 47 52 68 81 76 80 82 79 70 75 67 61 53 52 51 54 57 59 54 53 53
29 23 30 28 35 26 29 32 57 69 80 70 34 37 42 30 23 31 26 24 42 44 55 64 67 65 75 76 75 73 75 74 64 53 48 48 50 50 52 55 52 44 43 42
39 40 35 29 25 29 34 36 59 70 84 70 31 40 34 28 26 26 27 34 39 52 60 70 68 66 69 70 67 67 68 58 50 48 50 53 50 46 44 45 42 40 40 42
51 47 39 29 33 26 41 48 35 58 67 77 42 22 28 28 26 33 35 42 55 57 56 62 62 62 64 64 63 58 51 50 48 49 53 52 50 46 44 45 43 43 43 41
38 54 51 38 36 25 32 26 38 48 40 41 36 30 46 36 32 36 40 52 54 52 51 56 57 56 56 53 50 47 47 48 50 52 52 48 43 43 42 43 45 47 43 42
46 45 57 44 46 34 29 31 27 31 53 59 70 42 19 29 30 37 44 50 54 52 53 52 52 51 50 49 49 49 47 50 54 52 49 49 47 43 43 44 44 43 45 42
39 55 72 54 38 28 21 28 41 65 39 53 72 50 18 23 28 30 36 44 49 47 50 49 44 47 50 49 48 48 52 53 51 51 50 48 46 46 45 43 42 48 42 43
30 39 67 47 38 32 25 26 21 31 58 48 67 51 20 16 15 22 27 38 46 47 49 46 44 46 49 51 55 52 50 50 49 51 48 47 46 46 44 42 52 41 42 46
37 35 43 53 33 28 28 28 25 30 70 50 52 38 29 23 21 20 20 19 42 44 42 43 41 42 44 50 54 53 50 49 50 47 46 46 46 45 41 44 39 42 46 48
36 39 27 27 30 29 25 27 29 29 37 49 42 37 29 22 22 18 24 22 19 27 39 42 45 59 56 57 58 55 48 46 45 44 46 44 44 41 39 41 44 46 49 49
36 47 35 40 36 34 36 32 29 29 26 26 26 28 23 19 22 23 21 21 24 28 29 42 57 58 58 58 54 53 46 44 44 45 43 35 36 41 57 58 45 47 49 45
50 52 68 58 44 40 52 35 30 30 27 25 30 29 30 30 29 29 28 31 29 32 34 37 47 52 53 52 51 49 45 45 45 37 34 35 42 55 46 43 47 44 43 44
58 58 77 76 64 53 40 19 18 22 26 26 25 26 30 29 35 35 38 38 38 37 37 39 41 41 46 47 46 45 48 41 38 38 37 42 46 46 44 42 46 45 48 50
55 74 82 71 77 52 35 24 24 28 35 31 35 34 31 28 39 49 39 36 35 35 38 41 44 44 44 43 41 38 37 38 39 45 43 47 51 48 46 49 56 59 53 53
53 66 70 85 80 68 51 24 24 22 58 39 40 43 48 44 72 65 48 44 45 45 47 47 42 40 40 41 37 41 47 47 50 49 52 57 54 56 54 49 58 57 56 56
86 80 80 95 92 76 40 28 24 44 59 40 41 45 47 57 62 50 43 48 41 44 52 57 60 63 62 57 53 60 59 55 58 66 69 62 55 45 57 60 58 55 54 55
73 93 92 96 98 82 29 28 45 60 44 50 46 49 49 50 46 44 50 43 41 52 58 63 67 68 62 59 60 58 57 56 59 67 71 58 60 64 69 62 56 54 54 55
76 80 85 76 82 57 39 57 56 58 57 54 57 62 61 64 60 54 59 66 70 73 78 79 78 72 57 50 54 59 59 59 63 69 62 71 62 61 60 56 56 57 57 58
44 38 62 49 41 42 62 59 57 60 65 58 57 58 58 60 54 63 74 78 82 85 86 80 74 67 58 52 50 55 56 54 56 60 61 62 63 60 61 58 62 65 63 61
62 44 48 49 64 69 63 64 62 60 59 58 61 64 67 73 77 80 82 80 76 71 68 61 59 56 52 56 54 58 56 57 59 60 62 61 62 63 68 72 73 72 71 70
50 54 70 84 73 72 71 62 58 65 66 62 75 84 82 81 84 81 79 76 74 70 62 64 63 63 61 60 54 54 54 54 55 59 59 59 62 70 72 72 69 68 69 70

GFSCGP_925_rhum_048.txt.gz
RH
39 41 44 38 36 29 25 21 23 22 18 33 35 28 28 56 57 60 60 56 50 54 49 50 54 58 60 65 67 64 78 78 76 75 73 70 67 68 64 65 66 63 57 54
38 38 33 35 27 27 25 26 31 22 22 23 30 28 27 44 52 51 50 50 42 45 47 48 54 57 77 80 79 76 78 79 76 70 66 65 68 73 66 64 57 58 55 49
41 31 30 34 27 32 30 31 30 30 27 19 19 19 23 24 34 42 42 40 36 35 46 51 58 75 84 91 82 76 76 76 76 72 68 68 73 71 69 62 62 62 54 49
33 26 30 35 33 29 36 28 29 26 32 31 23 26 30 24 28 36 35 36 34 35 39 53 62 85 92 92 89 86 83 78 71 68 68 68 67 72 65 58 60 62 51 50
38 37 36 35 31 25 36 30 29 27 34 38 35 37 32 25 27 38 36 35 32 36 38 57 72 81 88 97 93 86 80 74 72 72 78 66 67 65 56 57 61 60 54 49
30 33 29 30 30 29 30 26 45 51 50 50 38 39 36 32 24 23 32 34 38 44 49 52 76 84 90 98 93 87 80 74 79 80 81 73 63 58 59 59 64 58 53 54
29 32 32 31 33 29 28 40 58 62 74 60 39 43 39 30 25 26 29 37 44 48 61 68 88 89 97 100 95 85 90 88 85 83 76 71 53 55 59 60 63 58 60 53
41 40 35 34 31 34 36 38 59 48 79 60 44 45 36 31 26 25 29 27 45 57 56 62 80 88 92 96 97 95 92 87 76 80 75 70 58 60 57 60 64 60 48 50
52 46 38 37 36 34 33 42 37 64 67 83 51 27 30 31 29 35 34 41 49 65 67 69 69 81 88 92 92 90 90 79 72 74 65 61 56 53 56 56 46 48 51 55
37 53 49 42 30 28 32 29 45 56 48 48 39 35 48 36 33 37 42 45 65 69 79 82 79 79 84 82 84 82 76 75 69 60 56 50 48 47 46 48 50 51 52 47
42 48 49 50 46 37 34 32 31 40 55 55 66 42 28 38 37 43 46 54 64 65 69 73 73 70 70 70 71 66 61 61 59 56 56 52 51 48 48 48 48 50 55 64
40 59 64 42 34 37 42 44 42 64 37 57 73 46 26 34 35 43 45 53 60 57 58 63 66 68 67 65 55 50 52 54 53 56 52 48 45 49 51 56 58 55 61 60
42 54 67 53 38 40 42 38 33 49 59 54 68 52 24 21 25 32 41 50 55 56 59 57 61 63 63 61 57 55 53 51 56 53 50 49 53 56 68 58 50 62 59 47
41 46 52 61 41 33 34 31 28 38 69 52 56 37 30 27 26 22 28 36 56 54 53 54 54 57 59 60 63 62 59 60 58 54 54 56 58 60 48 48 55 50 46 46
38 41 36 34 31 30 29 29 29 32 39 47 40 43 32 29 23 25 24 22 37 52 53 55 56 60 57 59 62 62 62 61 57 58 56 55 52 46 46 48 52 59 50 50
40 42 35 38 39 34 33 29 30 31 28 32 31 32 37 31 30 33 30 32 35 38 45 48 62 69 67 70 69 66 63 62 60 54 50 51 50 46 55 55 52 50 49 46
49 58 66 55 46 41 59 39 33 29 29 30 36 34 31 41 37 37 45 41 41 45 48 61 68 69 71 71 67 70 67 59 51 50 53 49 53 54 50 47 49 52 53 53
62 66 72 78 61 67 46 32 30 38 35 33 32 33 43 44 48 48 42 42 43 45 49 54 58 64 65 67 64 58 52 50 45 44 46 48 49 52 57 64 61 68 63 53
56 76 80 71 75 54 38 24 28 36 41 35 43 42 37 48 52 53 53 57 56 64 56 54 54 54 56 56 53 50 50 49 53 57 55 59 68 64 62 77 75 60 61 57
64 71 77 89 70 66 51 29 28 35 61 41 49 52 48 46 70 66 59 53 57 57 58 60 58 55 52 52 49 51 57 60 64 62 67 68 71 83 86 68 65 60 57 55
85 86 79 96 78 66 49 31 28 39 47 46 51 51 51 64 66 64 54 58 59 61 62 63 62 65 63 57 54 61 66 70 74 74 82 86 86 71 64 62 60 57 56 57
64 84 90 95 87 62 45 34 40 51 53 56 53 55 70 72 61 55 57 59 63 68 68 65 64 62 56 54 53 59 64 64 72 74 74 72 64 61 62 57 58 59 59 60
64 62 74 73 74 59 59 56 58 59 64 63 73 69 71 65 69 73 80 80 78 79 76 61 56 57 58 58 55 59 61 62 61 63 63 60 56 55 59 62 63 63 62 64
50 63 71 61 70 75 74 71 69 67 68 66 65 66 64 72 77 82 82 82 83 76 74 69 64 60 57 56 56 57 58 58 56 56 56 55 58 59 61 63 62 69 72 68
63 52 64 91 76 71 72 71 67 70 74 78 77 74 76 79 83 81 79 71 69 68 63 59 59 61 62 58 55 54 54 54 54 55 55 55 56 57 57 54 65 70 70 70
57 56 72 86 73 75 76 74 70 74 79 78 81 85 80 78 81 78 79 72 68 68 64 64 64 62 60 53 51 52 54 55 55 54 52 52 54 55 54 56 59 58 63 67

GFSCGP_925_rhum_051.txt.gz
RH
42 38 40 37 37 35 34 29 25 21 20 28 37 34 30 61 73 79 87 81 78 80 76 75 75 74 74 70 75 71 68 65 72 86 91 89 83 77 71 69 71 74 71 59
37 40 32 33 34 30 28 30 30 27 24 28 35 38 28 62 71 70 71 72 62 78 73 70 68 66 69 68 74 79 76 76 81 81 83 80 74 71 65 69 68 65 60 51
42 28 30 31 31 30 30 31 32 32 29 23 27 30 29 48 58 61 61 59 52 65 68 67 61 67 68 70 76 73 76 78 80 79 79 76 76 75 75 70 66 63 57 53
38 31 29 34 33 31 36 30 32 31 31 29 24 29 28 35 52 56 56 56 49 55 55 57 58 64 74 73 76 80 80 82 83 80 77 72 74 76 72 66 60 58 56 50
35 36 34 34 31 29 36 31 34 31 35 37 35 39 33 30 45 47 54 52 47 45 52 55 57 61 73 80 86 85 87 87 86 81 77 74 69 66 62 65 60 63 59 53
31 33 30 32 29 30 28 30 41 50 47 50 38 40 41 32 27 28 40 45 44 42 46 51 53 62 76 88 90 91 93 90 86 82 78 72 68 65 64 65 62 67 61 53
31 31 32 33 31 32 33 43 55 62 69 57 41 46 42 30 29 25 32 39 43 42 47 54 66 80 90 100 98 98 96 96 88 80 78 76 73 63 66 61 62 70 62 59
43 46 34 31 33 37 38 40 59 45 68 55 46 55 38 30 35 27 32 40 44 47 51 69 78 83 91 98 100 100 99 95 92 84 80 79 74 73 66 59 61 68 61 55
46 41 44 37 36 31 36 45 37 65 71 82 54 39 31 34 32 40 36 37 49 60 60 74 83 86 94 98 98 100 100 97 89 86 87 84 75 76 63 65 66 66 57 56
40 38 47 45 37 36 33 34 43 55 49 55 42 40 45 37 32 34 52 47 48 62 71 74 85 89 95 96 98 97 94 91 88 88 88 86 82 75 65 70 71 59 62 79
43 37 40 42 41 34 37 37 36 46 55 56 65 48 29 38 34 35 37 48 67 78 88 88 85 89 92 96 98 95 98 92 87 84 81 80 73 64 62 61 60 63 75 76
40 51 58 43 34 35 35 39 45 66 43 61 74 49 26 30 36 40 42 44 65 70 82 84 83 85 91 91 91 90 89 88 84 77 77 66 55 54 52 55 58 58 80 78
45 54 60 44 38 46 49 47 44 53 61 59 69 53 27 27 27 34 45 46 62 68 69 78 83 83 82 84 85 84 82 79 78 75 65 60 58 54 54 55 57 85 69 70
43 55 49 56 41 38 41 37 38 47 72 53 60 40 30 26 30 29 26 40 53 65 66 70 76 79 75 76 76 74 74 74 75 70 67 62 59 60 59 76 75 64 63 56
40 45 43 40 32 30 28 30 41 41 42 48 40 46 37 35 28 28 30 26 34 58 63 65 66 74 71 72 76 76 75 75 73 66 67 66 63 66 72 57 59 51 57 60
42 46 34 46 40 37 35 33 33 34 35 42 38 37 31 32 35 43 41 42 48 54 52 59 65 71 72 76 84 82 79 74 72 75 71 69 67 60 55 56 58 63 54 51
46 59 59 49 48 43 58 46 37 32 31 33 40 35 32 41 46 48 49 49 52 56 63 68 68 73 78 79 77 77 78 78 78 72 68 63 54 56 60 57 54 58 67 76
61 62 68 72 63 63 38 38 33 36 37 36 36 39 45 50 56 60 55 51 63 67 70 72 79 79 82 78 78 80 76 68 64 66 64 59 56 56 57 64 79 87 90 82
59 74 79 71 76 52 40 35 38 35 36 36 45 51 54 55 53 59 65 65 65 63 63 62 62 65 66 66 64 63 61 62 63 68 62 57 56 72 80 84 91 85 70 62
66 73 74 84 72 75 55 37 30 37 56 42 48 50 54 51 60 68 63 64 66 66 65 65 62 58 58 60 60 64 69 69 70 62 60 74 84 92 91 84 68 63 59 60
86 92 82 95 80 70 49 35 31 41 47 52 54 58 59 59 67 72 67 68 68 67 67 65 65 65 65 66 64 71 69 68 73 81 85 86 84 72 63 64 63 62 58 59
73 89 89 90 78 66 45 36 37 46 57 58 59 61 79 74 68 68 69 73 70 68 64 60 60 60 56 51 48 61 72 84 82 72 69 69 66 65 63 58 55 59 61 62
57 67 76 70 70 57 62 44 56 58 58 61 68 77 67 70 75 79 81 78 75 68 59 60 62 60 58 59 60 63 65 61 60 58 59 58 56 56 58 61 60 64 64 65
57 63 77 68 69 80 80 73 72 68 73 72 74 67 68 80 82 84 81 81 79 72 67 59 59 63 63 59 59 60 59 56 55 56 55 54 55 53 51 53 56 60 62 69
64 62 81 89 79 76 75 76 79 82 80 80 77 75 79 81 83 80 81 75 67 64 63 62 66 67 64 59 62 61 60 60 60 62 63 64 66 68 69 68 68 66 61 61
63 68 80 85 74 74 80 79 78 81 84 81 82 84 79 76 79 75 74 69 69 71 67 65 63 63 66 69 80 83 81 80 82 84 86 84 81 74 75 81 78 76 82 81

GFSCGP_925_rhum_054.txt.gz
RH
42 40 42 38 39 35 35 35 32 25 20 29 39 40 61 70 71 73 78 84 89 88 74 75 73 75 75 84 80 76 78 75 65 73 84 93 96 97 91 84 80 75 71 64
38 45 36 34 36 32 32 32 33 27 27 28 32 35 36 62 63 64 73 82 82 89 87 80 78 79 77 77 79 76 79 77 70 65 74 85 91 92 85 83 78 74 71 66
46 32 32 34 31 29 30 31 33 32 30 24 28 28 34 46 67 71 72 72 72 79 86 86 82 80 76 74 77 75 82 81 71 70 78 91 94 89 82 76 73 74 70 60
42 34 30 34 34 31 32 30 33 36 35 36 27 32 28 38 65 69 69 74 70 68 76 78 78 77 76 73 77 78 78 80 72 78 85 88 83 82 75 66 66 68 65 57
35 37 36 36 34 32 33 33 34 35 38 40 37 42 35 31 44 62 68 66 64 59 66 75 74 72 72 75 78 77 76 77 81 83 89 87 83 80 74 71 68 68 66 60
33 34 32 30 32 30 31 37 42 49 49 51 39 41 42 36 33 44 51 60 60 56 59 63 65 66 69 72 80 83 85 85 88 89 90 87 84 81 80 77 71 68 68 58
32 32 31 32 32 33 34 42 54 62 67 56 43 47 43 31 28 28 37 47 56 54 54 62 67 67 72 79 85 82 88 92 90 91 94 90 88 84 78 71 70 69 72 64
45 46 35 32 33 35 37 40 60 45 65 49 46 49 37 30 36 36 34 33 48 55 47 54 60 67 79 88 88 86 92 94 94 100 95 96 93 82 78 69 66 63 66 64
47 38 40 37 36 32 42 45 40 64 71 81 53 41 27 33 32 39 36 45 53 55 50 53 57 68 84 91 92 88 95 93 98 95 89 98 92 86 79 70 66 62 69 62
36 35 44 40 37 35 32 39 46 58 51 55 47 40 40 31 35 36 41 39 46 60 61 64 70 76 84 90 93 93 95 94 96 96 96 93 88 84 84 78 70 72 70 60
41 33 36 41 41 36 44 42 45 46 57 55 64 48 34 27 34 33 35 44 48 57 72 76 87 87 88 93 96 95 100 100 100 96 94 96 89 89 89 81 76 75 67 65
40 44 54 45 36 34 36 42 46 66 47 64 75 56 28 27 29 35 38 40 51 65 74 85 88 93 96 96 97 99 100 100 99 96 96 96 92 92 88 80 77 74 70 78
45 47 50 42 38 44 45 48 47 56 62 62 71 54 30 32 31 31 38 40 47 66 77 87 92 94 95 97 99 100 100 100 100 99 96 92 90 88 85 82 78 72 73 85
39 54 43 44 39 40 51 49 51 51 74 58 62 42 34 31 32 31 30 32 42 56 71 81 88 91 89 91 96 96 98 98 97 94 91 89 86 83 75 69 66 71 79 76
39 43 51 40 34 36 36 33 48 47 46 50 42 50 38 36 38 34 35 32 34 50 65 71 74 84 83 85 88 89 88 88 91 91 88 89 80 70 63 63 74 74 79 75
48 47 39 44 41 41 38 35 46 41 38 44 40 42 38 34 39 47 50 53 63 71 74 64 67 69 85 89 92 90 89 87 84 84 87 83 73 69 71 83 72 76 63 61
50 61 60 50 49 44 60 46 40 37 38 40 48 41 38 44 48 50 54 61 70 77 82 91 94 93 89 92 90 90 88 84 83 84 81 77 76 73 67 72 65 58 61 80
60 58 67 74 63 67 43 40 39 43 37 35 37 35 43 53 66 71 75 72 70 69 70 74 85 86 89 90 90 90 88 84 79 76 75 70 64 59 62 74 81 86 91 93
61 72 78 72 73 50 41 38 41 39 38 40 42 55 61 64 60 72 68 71 73 72 70 69 68 70 72 74 74 74 73 73 69 65 58 57 72 82 89 92 94 92 86 68
63 68 68 82 68 63 49 38 34 31 46 44 53 64 65 60 53 67 71 70 71 72 70 68 68 70 70 72 70 68 67 63 64 66 78 89 88 88 88 85 70 65 64 61
85 89 73 93 77 71 53 36 32 43 48 50 53 57 64 56 63 77 73 72 71 69 68 66 69 73 72 66 62 70 73 76 78 81 83 84 84 79 70 66 65 65 62 61
73 82 87 86 81 67 45 37 41 45 54 58 60 64 72 81 77 78 75 73 69 69 67 67 68 67 64 65 65 81 91 85 72 66 67 69 67 64 61 58 55 58 61 64
69 66 74 68 70 55 54 41 46 54 60 59 66 76 72 77 80 78 78 73 71 67 66 65 67 66 65 66 66 69 69 60 57 55 57 57 56 58 60 62 62 64 64 66
58 59 66 64 65 72 77 72 68 64 67 74 76 70 68 83 82 82 80 78 74 67 66 65 68 73 73 65 64 65 62 62 59 62 68 72 74 75 75 76 76 79 78 82
67 65 78 77 80 74 72 75 77 82 81 77 77 76 79 80 81 81 81 76 71 70 70 71 69 72 84 82 84 80 76 70 74 73 72 68 63 57 52 48 57 66 68 83
70 73 78 74 66 61 69 81 81 81 84 80 82 86 81 77 81 75 77 73 76 75 69 71 78 92 96 82 80 76 69 65 61 61 60 56 49 51 64 86 86 72 70 73

GFSCGP_925_rhum_057.txt.gz
RH
42 35 37 32 36 32 32 33 30 25 22 36 37 34 44 83 81 76 72 72 70 67 63 73 77 79 80 86 88 89 89 87 88 79 79 82 85 84 92 92 90 89 79 73
36 42 35 32 36 36 32 32 30 27 26 28 29 26 30 73 79 68 65 64 60 62 66 71 75 78 78 80 83 84 82 84 85 78 72 82 83 88 91 95 90 85 76 67
42 32 34 35 33 34 31 32 34 32 30 25 24 23 32 51 60 62 58 56 56 59 65 69 74 78 79 82 83 85 85 82 86 82 70 73 84 91 99 95 89 81 74 68
36 34 34 35 35 31 33 29 32 34 34 32 27 33 28 30 54 60 56 58 58 62 62 63 72 76 80 79 82 80 81 82 83 79 74 78 85 90 96 96 88 82 73 68
33 38 38 38 34 32 32 33 34 35 37 37 36 33 27 29 30 44 54 56 60 57 59 63 66 69 75 79 85 87 86 83 85 85 83 80 91 93 89 90 81 81 76 66
32 33 32 30 33 32 34 38 39 42 42 44 36 34 30 26 26 27 32 46 58 56 57 57 64 69 71 81 85 84 90 90 89 94 95 91 95 93 89 84 79 78 74 67
34 33 31 33 33 34 33 36 44 52 53 45 43 42 31 27 26 26 26 32 49 54 54 54 61 67 69 77 83 86 87 89 97 93 97 86 86 94 89 82 77 83 86 72
36 37 35 35 31 34 37 36 50 44 48 40 42 43 24 29 26 33 34 34 33 53 52 50 52 59 64 73 79 85 85 86 97 99 98 80 84 95 93 81 80 82 76 75
47 37 37 38 37 31 41 40 38 58 68 63 43 33 22 26 27 32 36 34 36 41 51 49 49 55 61 70 76 84 83 86 94 99 100 88 89 100 97 89 87 82 84 77
39 37 44 40 38 39 35 36 45 49 54 54 40 37 27 24 28 32 30 37 36 43 47 46 48 55 61 70 76 87 86 86 90 99 100 99 95 98 97 93 88 82 82 76
37 33 36 42 39 35 42 41 44 40 46 45 48 34 32 24 27 33 34 36 40 41 48 48 48 55 65 76 82 87 88 86 91 98 100 100 100 100 100 95 89 78 74 79
38 44 53 38 37 35 36 39 41 53 48 58 57 42 28 29 27 31 32 34 39 48 46 51 54 66 74 78 83 86 90 90 94 100 100 100 100 100 100 99 93 87 84 88
44 45 45 36 36 43 42 42 44 50 55 55 65 43 27 29 27 27 28 29 34 45 53 59 64 66 72 81 87 93 96 97 97 99 100 100 100 100 100 100 96 94 96 81
38 48 40 36 33 37 51 49 46 45 59 51 50 37 30 28 28 26 30 30 28 30 46 56 66 73 82 90 96 99 99 99 100 100 100 100 100 100 100 98 96 95 94 85
41 43 45 36 32 37 37 41 49 44 42 48 39 42 32 30 29 30 38 41 54 56 54 59 64 70 76 84 94 99 100 100 100 99 100 100 98 96 96 100 99 87 85 83
47 44 51 43 42 38 37 35 43 44 41 42 38 39 32 31 35 43 52 57 64 71 75 72 66 70 80 89 93 98 96 96 96 96 100 97 92 94 89 85 85 81 86 91
53 60 59 50 48 44 59 48 41 40 39 39 46 37 35 37 44 50 57 63 68 72 77 80 81 85 89 93 93 95 96 96 93 91 90 90 83 83 84 85 80 75 77 84
61 60 64 68 63 68 38 40 36 38 38 35 34 32 34 41 59 60 62 58 63 67 71 75 77 82 86 88 89 87 83 82 81 80 79 78 76 75 80 82 92 93 91 96
55 66 72 74 62 48 36 36 40 40 30 36 34 35 46 58 55 61 62 62 64 65 66 70 73 76 77 78 79 76 72 70 68 70 75 82 89 90 88 88 89 92 92 82
63 63 69 71 64 65 47 34 35 29 41 35 37 48 56 56 54 49 63 63 64 64 66 69 72 73 73 73 69 65 65 72 83 88 91 85 81 87 91 85 71 71 70 66
76 76 66 75 71 59 45 39 35 44 36 41 42 48 56 50 52 62 64 64 63 64 68 71 70 70 68 67 67 68 73 81 91 86 84 84 79 74 68 66 64 65 71 65
68 73 80 77 75 58 46 36 42 42 44 47 50 56 60 71 71 67 64 63 61 63 65 66 68 72 77 76 77 80 79 77 72 64 63 66 60 58 58 60 69 71 76 78
74 62 68 60 60 51 41 39 42 45 45 55 52 58 67 72 69 66 66 63 61 61 63 65 69 73 73 70 67 67 70 64 59 58 68 70 69 70 71 76 76 74 74 75
66 68 63 55 55 57 58 63 64 57 53 56 58 60 63 69 68 66 64 62 60 61 64 67 66 69 76 78 80 78 66 62 68 78 77 73 68 61 61 57 59 59 65 68
60 69 68 68 64 70 62 66 62 66 72 68 64 63 67 69 68 66 65 61 61 65 65 64 71 79 85 84 83 74 69 70 72 71 64 59 59 60 56 61 68 69 73 84
63 64 71 67 56 54 48 62 69 74 71 68 72 74 67 64 67 63 63 65 68 66 67 76 84 85 84 85 80 73 64 55 54 54 57 68 68 71 71 69 68 81 91 93

GFSCGP_925_rhum_060.txt.gz
RH
26 25 26 19 19 26 20 20 18 17 18 26 23 21 17 37 52 44 38 38 44 47 47 56 60 59 55 51 58 63 64 71 80 81 68 59 61 64 70 76 94 98 99 100
29 27 20 22 24 27 24 19 18 20 20 23 19 18 16 25 44 42 39 42 38 40 44 51 60 59 60 53 56 60 65 72 76 70 61 57 58 64 65 80 88 95 96 95
24 22 24 26 26 28 25 23 22 21 21 20 20 17 19 28 38 45 47 40 33 34 38 44 54 60 61 58 59 60 62 68 72 67 62 61 62 71 74 78 97 99 95 86
23 19 26 25 26 23 26 19 21 22 21 23 20 24 18 18 28 35 36 40 38 32 33 36 46 53 58 59 59 61 62 67 72 73 64 64 55 56 62 74 96 93 91 82
23 26 27 26 22 22 22 23 24 23 23 27 24 23 17 20 19 23 31 33 36 36 33 34 39 47 54 57 62 66 62 65 70 74 71 70 62 49 57 82 90 94 90 85
19 23 23 21 23 23 23 27 28 28 28 33 24 23 18 15 15 16 16 24 28 32 36 34 33 43 48 55 61 69 68 68 70 77 81 76 71 66 81 86 90 90 90 86
24 23 22 24 26 27 26 26 35 42 39 34 28 28 19 16 17 18 19 19 20 27 33 36 34 37 44 50 60 67 69 64 67 76 81 82 83 80 87 86 84 86 86 84
26 30 23 24 24 24 27 25 31 38 36 30 30 26 17 18 17 20 23 24 24 23 31 33 36 37 41 49 58 67 69 66 65 77 82 85 87 88 89 83 88 85 88 83
25 22 23 25 25 23 31 32 25 37 51 44 25 20 16 16 17 21 20 21 23 22 26 31 30 36 42 47 55 62 68 64 62 74 82 88 98 97 88 98 93 97 89 83
23 26 26 32 28 29 29 24 34 33 42 39 27 25 18 17 20 16 16 17 20 26 27 29 30 33 39 43 50 61 67 64 64 71 83 93 98 100 100 99 99 99 87 96
20 22 39 34 32 26 32 32 31 28 31 37 36 25 16 16 17 22 22 20 21 25 29 31 31 34 38 44 52 59 65 62 63 68 77 94 98 100 100 100 100 98 96 90
21 22 30 27 29 27 23 26 28 34 34 37 40 30 14 16 19 18 19 21 24 28 29 30 32 36 41 46 51 57 60 61 62 68 77 91 96 99 100 100 100 100 95 90
24 27 33 30 31 32 28 26 24 28 33 32 48 30 18 20 20 19 18 18 22 26 28 33 37 39 43 48 53 58 66 67 70 79 94 99 100 100 100 100 99 98 99 98
30 23 27 32 23 19 28 26 25 27 36 28 30 24 18 18 17 16 19 20 20 21 22 30 37 42 52 59 67 76 84 93 99 100 100 100 100 99 100 100 100 100 100 100
26 27 25 20 18 16 18 18 21 24 24 25 24 20 22 19 18 18 24 26 32 36 34 32 41 46 52 63 75 91 100 100 100 100 100 100 100 100 100 100 100 100 100 100
32 28 28 29 22 22 22 20 18 21 20 26 24 23 18 18 21 24 30 34 40 48 51 48 48 53 64 70 76 83 89 94 96 99 99 100 100 100 99 100 100 99 100 98
37 33 38 35 31 32 51 32 22 23 26 26 26 22 17 22 24 27 35 40 46 53 55 58 60 63 68 74 77 80 84 84 85 86 88 86 85 88 88 88 89 92 88 80
46 38 41 41 63 77 25 26 21 23 21 20 21 21 20 20 25 35 40 44 50 52 56 57 60 66 70 72 74 73 72 74 74 75 76 78 79 81 84 88 91 82 80 85
43 44 58 75 48 29 30 30 31 30 25 19 22 19 20 31 39 46 44 44 48 52 52 56 60 64 67 67 67 66 66 67 69 71 75 78 80 85 89 93 92 89 92 94
48 49 49 60 54 73 27 21 22 24 35 17 19 20 24 37 41 27 47 48 50 51 55 58 62 63 64 63 61 62 65 68 70 73 76 78 80 85 92 86 82 73 65 61
68 66 71 59 63 38 28 26 24 36 34 21 20 22 32 39 31 42 46 49 48 53 56 59 58 58 59 60 62 64 68 72 76 78 77 78 76 69 65 62 60 56 53 58
58 67 80 59 83 71 32 29 30 24 31 24 28 27 36 43 50 50 48 49 50 52 57 56 58 59 60 61 63 66 67 67 68 67 63 59 57 52 54 55 57 57 57 62
62 48 52 48 42 38 31 23 24 29 24 32 30 30 36 51 51 49 50 50 48 50 52 56 60 62 60 57 56 55 59 59 59 58 58 60 58 56 54 51 51 45 43 44
47 53 59 52 29 35 36 28 37 32 31 32 31 36 47 48 50 51 50 50 47 48 50 54 57 58 60 59 58 58 58 57 57 56 56 52 46 42 38 34 36 37 48 54
36 49 42 42 35 46 43 40 31 39 44 42 37 40 42 46 49 50 50 49 46 48 53 54 57 60 60 61 63 63 60 54 51 48 43 41 43 39 36 39 49 54 64 75
42 40 58 52 30 40 27 37 35 42 44 41 42 46 44 45 48 48 48 47 49 51 53 57 60 62 63 63 61 55 48 44 40 37 40 52 49 50 44 42 42 61 63 72

GFSCGP_925_rhum_063.txt.gz
RH
20 22 22 17 16 14 17 14 13 14 14 17 18 22 16 26 25 28 30 31 37 36 33 40 44 45 42 48 51 51 51 53 57 57 54 47 49 50 50 53 58 70 86 94
22 25 16 15 16 19 18 17 14 14 14 17 16 20 16 16 26 24 27 26 32 34 34 37 43 45 42 45 48 48 48 50 56 55 52 43 40 43 46 51 58 79 89 96
23 18 14 18 18 21 20 18 23 21 23 15 16 16 14 14 21 25 25 25 27 30 34 37 40 45 44 43 47 48 48 49 52 49 49 43 42 42 49 49 57 80 86 90
20 15 18 18 20 19 23 15 16 17 18 22 24 30 26 15 19 24 28 32 30 26 28 33 39 46 49 45 44 46 47 46 49 53 47 46 42 40 43 50 53 79 84 91
20 17 20 22 20 17 20 19 18 18 22 23 21 18 30 14 12 15 22 30 27 23 24 27 33 40 45 49 48 48 46 47 48 53 54 51 49 43 44 50 53 89 85 87
17 13 16 17 15 17 16 20 20 20 21 35 23 21 25 17 12 10 11 18 23 23 21 22 25 32 37 42 48 50 50 48 49 52 57 57 55 54 43 44 64 81 86 87
19 19 16 16 21 19 20 23 32 39 51 36 27 20 21 22 12 12 13 12 16 21 24 24 22 27 33 37 44 50 53 50 50 53 58 63 62 62 57 55 73 77 82 88
23 27 19 18 18 22 23 22 34 52 45 52 21 21 18 12 12 12 14 15 16 17 20 24 25 24 29 34 41 48 51 53 51 58 61 64 69 69 69 69 81 85 84 89
21 20 14 15 16 17 23 27 22 32 29 33 21 16 12 12 11 13 14 15 16 17 17 20 23 26 26 31 38 46 48 50 52 56 60 67 71 74 74 84 88 91 91 85
17 22 15 17 18 18 26 20 30 26 44 41 22 19 19 15 16 13 13 13 13 17 19 20 22 25 29 30 35 43 51 51 51 53 64 75 82 85 83 87 93 95 97 90
15 19 23 24 26 21 25 29 25 30 38 39 32 21 15 14 13 14 15 13 14 16 20 24 23 23 26 30 37 44 51 55 55 55 64 78 90 96 91 94 93 94 98 100
16 20 29 27 15 15 18 22 23 32 29 27 31 28 13 13 12 14 14 14 14 17 18 22 25 27 28 31 34 42 48 53 52 53 57 84 94 98 99 98 100 99 100 100
18 23 30 25 26 21 23 21 21 23 23 33 50 31 14 14 15 14 14 13 15 17 17 19 24 28 32 36 39 43 49 50 50 53 62 91 99 100 100 100 99 99 99 98
26 21 25 29 24 21 24 20 19 23 38 31 26 20 16 14 15 13 13 14 14 16 16 19 23 28 34 40 44 49 61 73 80 91 99 99 100 100 100 100 100 100 100 100
22 26 22 18 16 16 16 18 19 21 22 28 22 19 14 14 14 14 17 17 18 21 20 18 26 30 39 50 70 87 98 100 100 100 100 100 100 99 100 100 100 100 100 100
22 29 25 23 18 16 18 15 14 14 15 16 15 16 12 12 11 15 17 20 23 29 31 31 29 36 45 58 74 91 99 100 99 100 100 99 99 100 100 100 100 99 100 99
28 33 31 36 21 21 34 20 17 16 15 16 21 17 13 14 14 15 17 23 27 37 40 40 42 50 57 63 73 82 88 89 90 91 91 91 91 92 94 95 96 97 97 89
30 31 34 48 63 60 24 16 16 18 16 14 15 14 13 13 13 15 20 24 34 40 46 50 51 56 60 63 67 70 70 72 72 72 73 76 75 74 74 77 80 87 82 81
39 36 45 59 48 29 20 23 22 20 19 14 14 13 12 15 23 30 29 30 37 41 43 47 51 55 56 57 58 60 61 63 64 64 66 70 74 77 78 82 87 90 95 96
33 42 52 53 54 59 28 19 16 16 31 16 14 15 16 22 36 20 33 36 41 41 43 47 50 52 53 54 56 57 58 59 63 66 69 72 72 74 81 92 91 88 74 58
62 65 72 57 56 34 19 17 16 38 33 14 15 15 16 22 23 30 36 40 38 41 44 49 49 49 50 52 55 55 59 62 65 68 70 72 77 74 66 59 56 50 47 49
64 66 83 62 71 68 26 25 29 26 19 18 18 17 20 26 37 38 39 39 39 41 47 46 48 50 52 54 56 58 62 65 64 64 62 59 52 46 48 48 48 47 48 54
64 41 52 44 41 29 28 26 24 19 22 22 22 18 22 37 39 39 39 40 41 43 43 46 48 52 53 54 56 54 57 57 58 55 52 51 47 43 42 41 42 34 35 41
34 31 48 41 31 28 27 27 24 25 26 22 24 22 26 39 38 38 39 41 41 40 43 46 51 52 51 49 49 52 53 54 53 50 48 44 40 35 31 28 28 32 46 50
27 25 35 35 26 22 28 31 31 24 27 26 26 24 29 36 37 37 39 40 38 40 44 49 49 50 50 50 52 51 50 48 45 41 37 36 36 31 30 34 40 49 74 61
23 27 45 48 28 36 30 27 30 29 27 32 30 28 32 32 36 36 39 39 39 41 46 47 51 52 52 53 52 50 45 40 36 35 38 47 45 43 33 32 52 54 52 51

GFSCGP_925_rhum_066.txt.gz
RH
20 23 24 20 19 18 16 16 17 16 15 17 17 18 38 44 33 34 31 37 42 36 40 61 56 52 58 61 66 60 60 60 57 55 60 58 65 58 54 52 57 69 78 78
23 28 18 16 15 16 18 18 16 14 15 15 14 16 27 30 21 20 26 30 35 35 38 40 42 48 55 56 61 58 56 59 58 60 58 53 54 58 54 51 52 67 74 83
27 21 17 16 17 18 18 16 20 24 17 15 17 17 17 15 18 18 22 23 32 33 35 41 45 45 48 52 54 53 54 56 57 53 53 49 47 49 51 51 53 64 74 75
21 16 17 17 20 17 21 14 18 17 19 22 21 34 26 19 16 21 20 24 26 30 31 36 42 46 47 51 52 50 50 50 53 53 51 50 45 43 47 48 53 64 78 80
20 18 18 21 17 16 20 19 21 18 19 21 23 35 24 19 17 16 21 26 29 29 31 35 37 43 46 46 50 50 48 47 49 52 50 47 44 42 41 46 48 59 82 83
16 13 14 16 15 16 15 18 20 21 22 34 22 28 29 22 23 14 20 26 29 28 28 30 36 40 44 46 49 50 49 48 46 50 51 52 50 46 43 46 51 71 79 73
18 17 14 13 18 16 17 22 36 43 43 42 22 25 24 27 20 16 12 23 28 26 26 27 32 37 42 46 50 51 50 48 46 47 55 48 56 55 50 47 53 78 79 80
27 29 17 15 18 20 22 22 38 58 83 62 43 28 17 16 13 12 12 13 16 23 26 25 24 33 38 43 49 52 52 51 48 49 53 58 55 62 62 57 62 73 74 73
26 23 14 16 16 16 23 30 21 59 59 71 52 25 14 13 11 11 13 14 17 17 21 26 26 26 34 38 45 52 51 52 50 50 52 56 59 64 65 66 66 73 72 84
20 29 16 16 15 15 18 19 31 34 74 46 22 20 21 17 14 13 12 15 16 17 18 20 24 28 27 34 40 47 51 50 52 51 57 60 65 68 73 72 77 92 93 96
19 24 23 17 19 20 20 27 31 24 27 46 52 35 32 21 14 14 15 15 16 18 22 22 23 24 27 28 35 45 49 48 49 54 57 63 68 74 83 87 94 90 94 95
20 24 33 22 16 16 16 22 28 41 39 40 52 36 27 24 14 15 15 15 15 16 19 24 26 24 26 31 32 44 48 49 50 51 54 61 69 90 93 90 96 96 98 100
24 27 33 35 23 19 19 18 21 24 28 36 62 37 15 14 14 13 15 14 16 17 17 22 27 29 29 28 31 38 47 49 52 55 59 76 99 100 98 98 99 99 100 100
34 24 27 39 33 23 23 19 24 27 48 39 37 31 23 17 18 14 15 15 15 18 17 18 24 29 32 35 37 53 70 74 78 93 99 100 100 100 99 100 100 100 100 100
29 32 26 20 19 19 21 20 19 19 24 37 29 22 18 15 14 15 17 18 17 15 16 18 23 33 37 63 84 91 96 96 98 100 100 100 100 100 100 100 100 99 100 100
32 34 30 32 21 20 21 17 18 17 17 18 19 21 14 12 11 13 16 18 18 20 24 22 22 36 60 77 89 97 100 100 100 99 100 100 99 99 100 100 100 99 100 99
37 40 37 43 25 24 34 23 17 16 16 16 20 17 13 13 13 14 16 16 19 29 32 33 32 51 71 81 90 97 97 96 98 98 99 99 99 99 100 99 99 99 99 100
47 40 39 58 62 56 26 17 15 19 17 14 13 13 13 13 13 14 15 20 26 34 38 40 52 59 69 78 84 87 90 91 90 89 91 92 93 94 92 90 92 98 99 93
39 55 65 62 55 34 24 21 21 22 22 16 16 14 12 12 19 28 24 24 35 39 45 49 54 58 63 70 76 73 74 71 72 75 76 73 73 75 78 86 89 90 85 87
37 51 63 68 60 65 37 21 18 20 35 18 16 19 17 22 41 27 31 34 38 40 44 50 54 57 57 58 58 60 61 62 63 66 70 73 74 76 81 86 91 88 85 84
71 64 66 64 66 48 26 23 20 38 40 23 19 19 19 24 28 35 33 38 38 40 43 48 50 51 53 55 56 56 59 61 65 68 69 70 75 80 84 80 76 71 53 52
70 69 74 70 69 69 27 24 31 30 31 24 24 20 21 43 39 37 38 40 38 39 42 46 48 50 51 53 54 56 60 63 66 69 70 70 65 59 56 51 47 44 51 58
68 51 57 48 53 38 38 33 32 32 34 33 31 25 23 42 39 39 41 40 38 39 44 44 47 50 52 53 55 59 63 64 63 61 55 49 46 46 46 48 44 42 40 42
48 54 70 82 35 31 35 34 32 30 33 27 26 25 26 40 39 40 40 39 41 39 41 42 48 52 53 53 55 58 58 58 56 53 50 46 40 36 32 29 30 44 52 50
32 43 54 60 46 43 34 33 33 35 35 30 28 28 30 39 39 39 39 40 39 39 40 44 50 52 53 51 52 53 54 53 51 48 41 36 33 31 31 39 46 56 53 43
27 26 42 51 33 43 39 44 40 40 37 33 33 33 31 36 38 36 39 39 39 40 42 47 50 49 48 50 51 50 49 46 41 39 43 45 40 33 32 46 45 45 48 52

GFSCGP_925_rhum_069.txt.gz
RH
29 35 35 32 28 25 25 24 24 19 17 22 26 40 50 47 52 75 75 76 70 72 76 83 83 84 88 88 79 75 76 67 69 63 50 43 44 56 57 55 63 62 59 60
34 36 26 22 23 24 23 25 25 20 19 17 18 21 48 52 53 51 66 65 62 67 74 74 75 77 79 75 69 68 56 56 64 54 54 66 58 53 58 57 61 61 60 63
38 29 23 23 24 23 23 24 26 26 22 22 21 26 46 36 40 44 46 48 47 69 72 68 63 69 65 60 61 62 68 66 71 68 63 56 59 57 56 56 51 55 65 69
32 24 24 26 25 21 25 20 20 25 28 34 24 40 28 26 32 30 37 47 46 60 63 62 58 63 66 63 64 63 62 66 67 56 53 59 59 64 62 53 56 54 60 70
30 27 27 28 24 20 24 22 22 27 30 29 29 48 44 34 28 30 33 43 43 47 49 51 54 57 60 62 66 64 63 62 61 62 58 58 56 54 56 55 51 52 66 70
24 18 20 22 20 19 18 20 25 26 32 47 32 50 56 37 25 26 29 36 39 42 47 48 47 51 55 57 59 58 56 57 54 52 57 60 56 51 48 52 52 54 62 72
24 23 17 17 22 21 21 25 50 60 66 61 39 47 40 31 26 24 25 35 32 35 42 45 51 48 50 56 56 56 56 57 55 54 57 53 57 49 43 41 48 55 76 77
34 38 22 17 20 25 27 32 59 60 78 70 50 48 30 25 22 17 22 30 35 32 35 41 44 50 48 49 55 55 55 56 55 55 55 52 52 52 44 44 45 50 61 69
33 32 17 17 18 20 30 37 33 72 69 91 73 42 22 22 19 17 16 26 35 36 32 35 41 42 48 49 50 56 53 54 54 54 57 61 54 59 59 51 54 51 66 64
27 35 22 20 19 20 24 25 43 64 97 97 57 49 35 38 29 19 16 17 23 28 32 33 33 42 44 48 52 55 56 55 52 53 53 58 62 62 65 65 69 75 75 69
23 31 35 26 26 25 28 28 34 47 63 73 66 56 38 34 27 18 23 22 26 26 25 30 34 38 41 45 50 56 56 56 57 55 54 54 62 64 66 75 82 86 89 95
25 41 48 36 23 18 21 28 40 66 52 58 73 59 26 32 20 23 21 21 23 29 29 28 33 36 41 42 46 54 58 56 56 58 59 56 65 70 72 92 85 88 99 100
36 54 66 43 30 20 24 26 25 38 51 59 76 60 26 26 19 21 21 22 23 22 33 34 34 36 38 42 46 49 57 64 63 65 84 82 85 80 85 89 98 98 100 100
38 41 47 52 48 32 32 27 24 35 59 52 62 43 30 27 20 18 18 18 25 22 25 37 39 39 56 76 97 84 89 70 63 80 98 100 100 99 100 100 100 100 100 100
42 49 42 38 34 31 31 28 24 28 38 54 44 39 31 26 24 21 23 22 21 24 22 29 40 59 88 94 100 100 100 100 100 100 100 100 100 100 100 99 100 100 100 100
42 50 42 43 33 28 35 29 24 23 24 26 31 35 25 21 18 21 24 23 22 26 30 32 56 78 85 94 99 100 99 99 99 100 99 100 100 100 100 100 100 100 100 100
43 48 51 56 41 36 52 36 37 29 22 24 30 27 21 19 16 18 24 25 32 38 39 51 70 82 90 96 98 100 100 100 100 99 100 100 100 100 100 100 99 100 100 99
56 46 60 67 54 61 36 26 26 27 24 20 18 17 17 17 17 19 22 28 39 43 45 77 84 88 94 96 95 96 97 99 100 100 100 100 100 99 99 99 100 100 99 98
47 65 76 67 59 47 37 26 27 29 31 20 19 20 18 16 30 30 31 36 48 53 64 77 81 87 91 90 89 90 91 91 92 94 96 96 94 94 95 99 98 99 96 93
44 56 80 81 63 59 42 34 26 22 44 25 21 23 24 27 43 41 44 51 58 63 64 69 77 84 86 85 85 84 82 82 85 84 86 83 83 89 90 92 95 87 81 81
76 74 79 87 86 67 38 29 27 43 52 28 26 24 25 33 42 42 54 53 55 59 64 64 67 73 78 78 76 75 75 76 74 74 75 77 79 80 84 84 84 82 84 83
77 82 86 85 84 80 33 27 37 41 34 31 32 28 36 42 48 48 50 52 54 60 62 62 64 63 61 63 65 68 70 72 73 75 78 77 78 82 84 82 82 75 62 60
81 74 76 70 69 49 43 45 33 34 36 34 30 34 50 54 50 51 52 54 53 57 59 56 61 61 59 59 61 70 72 72 74 74 74 76 76 70 56 47 51 59 60 60
51 51 70 60 56 70 72 69 48 40 36 31 30 35 54 60 57 54 55 54 54 58 58 54 60 64 62 60 65 67 70 71 71 67 54 48 50 51 45 42 43 46 49 50
62 57 66 68 58 58 50 69 42 43 44 44 43 31 31 52 54 53 55 55 54 55 51 56 61 63 63 63 65 65 64 62 56 51 46 40 34 34 39 47 50 50 54 51
41 55 76 71 54 59 52 46 40 37 39 46 47 43 30 50 51 51 54 54 53 56 56 60 61 60 60 58 58 58 56 54 48 42 38 38 38 38 40 46 53 43 42 42

GFSCGP_925_rhum_072.txt.gz
RH
31 37 39 33 33 28 30 32 34 27 20 22 29 43 54 59 61 74 80 80 81 96 90 89 96 95 99 98 97 100 97 90 83 70 75 70 70 70 64 67 66 70 69 67
37 41 30 29 30 31 31 34 34 26 21 21 21 22 50 60 56 62 71 77 79 88 97 91 94 96 98 97 94 96 92 90 89 74 65 71 63 65 62 58 59 59 59 57
41 35 27 29 30 31 30 33 32 28 23 25 23 29 51 45 51 56 58 53 70 81 94 88 88 92 95 96 93 86 83 78 78 73 64 61 56 56 63 59 57 60 60 61
38 31 32 32 32 28 35 25 25 25 31 38 25 42 45 42 46 49 53 60 63 73 79 81 80 86 90 84 83 75 72 68 66 73 55 57 56 64 62 61 57 57 64 63
36 36 36 36 31 26 31 27 27 27 32 32 33 46 42 36 38 41 48 53 59 68 74 78 73 77 80 73 72 67 63 63 67 69 60 61 69 67 60 58 57 59 56 60
27 23 28 29 25 25 24 26 28 35 38 49 36 47 49 44 34 33 44 49 54 65 69 69 65 66 61 59 61 62 63 63 65 69 66 68 68 61 64 63 61 56 55 56
26 26 24 21 27 25 26 32 48 52 64 61 44 51 42 29 32 29 42 47 51 64 69 68 63 62 59 59 59 64 67 67 67 72 73 66 60 56 59 58 57 58 58 65
38 41 25 23 24 27 30 34 57 53 68 63 58 52 41 28 26 26 30 42 47 57 58 63 61 58 61 63 63 64 65 65 66 69 68 64 64 60 57 58 55 55 60 62
38 36 23 20 20 21 29 39 34 71 74 82 65 56 35 25 23 22 28 38 45 50 52 53 53 54 56 59 62 66 66 64 64 63 63 62 62 68 68 62 57 52 56 63
32 38 24 22 21 21 28 31 56 65 79 83 67 60 50 29 24 20 29 46 40 41 48 49 50 51 52 56 58 62 63 61 60 60 60 61 60 62 66 69 62 55 54 66
32 36 37 27 29 31 31 33 42 53 68 80 74 57 43 38 26 23 23 31 36 40 42 43 46 48 51 50 54 58 59 57 58 59 62 61 60 59 64 71 69 72 86 93
33 41 48 36 29 27 29 28 37 69 73 72 70 55 30 34 23 25 27 28 33 34 38 39 40 44 47 50 52 52 57 57 58 62 62 65 71 80 80 88 85 86 88 68
36 48 54 38 31 29 32 29 30 46 58 65 72 59 30 32 28 24 27 26 30 30 32 42 48 46 40 48 49 53 55 62 66 67 68 74 76 92 90 94 86 87 77 64
34 52 36 42 42 39 41 30 26 38 67 58 62 45 35 29 28 22 26 24 28 32 35 39 45 64 81 68 52 54 60 65 67 67 72 92 95 98 98 97 95 90 87 98
41 53 43 40 39 40 40 37 33 32 40 47 42 44 34 32 30 25 24 23 25 26 36 41 49 93 98 97 93 77 79 78 71 68 90 99 100 99 100 100 100 100 100 100
46 52 51 58 43 41 45 41 35 36 31 39 40 43 32 28 28 26 24 23 25 27 30 37 59 89 96 97 100 100 100 100 98 100 100 99 99 100 100 100 100 100 100 100
51 56 63 64 45 46 65 55 48 43 37 31 37 36 27 26 29 25 28 27 27 34 53 65 68 82 96 98 100 100 100 100 100 99 100 100 99 99 100 100 100 100 100 100
71 58 66 79 58 89 58 39 43 47 37 31 23 22 26 24 23 21 25 30 36 41 58 72 83 96 100 100 100 100 100 100 100 100 100 100 100 100 100 100 100 100 100 100
68 66 75 76 71 62 51 36 37 38 33 25 26 21 20 19 30 29 30 33 35 50 77 87 89 98 100 100 100 99 100 100 100 100 100 100 100 100 100 100 100 100 100 100
74 80 62 83 78 84 50 35 29 28 48 28 25 25 22 32 42 40 36 50 57 72 85 92 95 97 98 100 99 100 100 99 99 99 99 100 99 100 100 100 99 99 95 93
83 87 78 93 85 75 50 36 32 45 51 32 27 28 27 34 38 33 53 55 64 74 84 90 93 94 94 93 92 93 92 92 92 94 94 94 94 92 89 95 99 96 92 90
68 82 84 86 86 76 46 40 42 47 40 36 33 31 29 33 43 53 59 67 72 79 84 87 91 93 90 88 85 86 86 84 85 85 85 85 86 88 92 94 91 91 92 88
72 63 70 67 71 54 64 61 60 54 51 43 40 44 42 47 52 61 60 66 70 77 79 77 80 81 79 78 77 81 83 79 80 81 83 83 83 85 85 89 93 89 74 70
54 59 66 58 57 59 57 55 64 66 56 50 49 38 47 46 54 58 65 67 72 73 73 71 72 75 76 73 74 77 78 76 77 80 82 84 84 82 78 81 75 73 70 68
50 61 62 67 57 58 62 61 58 60 62 50 47 43 37 49 53 58 64 64 67 69 68 68 72 77 79 76 77 77 76 75 75 66 62 61 57 55 58 57 58 57 57 53
63 72 76 79 56 56 54 59 61 58 42 44 52 47 36 50 56 63 65 70 65 72 71 72 72 70 69 71 71 70 70 69 55 49 45 48 52 56 52 45 44 40 38 40

GFSCGP_925_rhum_075.txt.gz
RH
35 42 45 40 37 30 31 34 37 32 26 27 30 33 46 62 79 78 90 91 92 94 95 96 96 97 100 100 100 100 100 100 98 94 93 87 81 81 65 61 65 66 58 53
38 47 32 31 34 34 35 38 38 32 27 28 30 28 40 62 63 63 73 88 90 98 91 98 100 93 100 100 99 100 100 99 94 85 87 82 78 78 72 74 71 66 68 62
39 38 32 33 35 36 37 38 36 35 30 28 28 31 46 48 57 57 60 71 81 95 94 97 98 100 94 100 99 99 100 96 95 82 79 75 76 74 74 74 71 70 70 73
39 29 34 37 37 34 38 29 31 34 36 43 28 47 35 49 58 58 56 66 78 92 93 91 95 100 100 100 98 93 96 90 93 80 74 73 72 71 71 66 64 65 67 67
39 37 35 38 37 32 35 28 34 35 40 37 36 45 40 41 48 49 47 51 64 82 91 90 89 90 96 98 98 92 89 90 90 84 76 67 67 64 63 61 60 60 58 60
32 29 34 33 29 30 28 33 33 39 42 54 40 45 47 43 39 34 35 43 55 75 86 82 79 83 88 90 90 87 83 83 80 78 70 67 63 59 58 58 57 59 60 57
32 30 26 26 37 33 32 35 54 54 61 62 42 56 48 33 34 31 34 45 50 64 80 84 80 80 83 86 83 80 76 73 70 69 68 71 57 56 49 52 60 59 57 58
43 49 29 26 30 33 39 40 63 55 63 55 55 64 45 33 31 32 31 38 44 61 73 77 77 72 72 72 72 71 69 67 65 67 70 68 59 54 60 64 66 62 62 57
48 44 26 24 24 24 34 45 32 69 80 83 62 50 39 31 28 32 35 47 58 60 70 72 71 68 65 61 62 64 63 62 62 66 69 71 64 64 69 71 67 61 59 62
38 42 28 24 23 24 28 36 49 65 79 77 62 64 53 38 31 25 35 49 54 55 63 67 67 65 64 59 57 59 62 63 64 66 69 74 76 74 76 71 68 64 63 68
35 42 39 28 32 35 36 40 49 55 64 67 76 62 49 43 34 25 32 46 52 54 58 58 61 60 61 61 62 62 62 65 66 67 70 72 72 72 72 71 73 73 73 78
36 48 50 43 29 26 28 35 51 68 72 72 75 66 35 37 34 24 24 36 48 48 50 52 54 54 57 58 60 64 66 67 73 74 68 70 62 62 62 62 65 66 80 86
44 54 58 48 35 33 36 35 34 51 66 80 82 69 31 34 33 32 27 30 39 45 45 46 50 52 54 57 56 60 63 65 68 74 69 72 75 72 71 73 68 78 90 84
64 52 45 50 42 38 40 38 35 40 67 67 64 46 36 34 33 30 30 27 30 39 41 43 43 47 50 51 56 56 58 62 67 68 75 76 75 76 77 74 78 90 84 93
52 52 48 38 32 42 43 42 41 44 39 45 44 49 38 35 34 30 27 28 27 32 40 48 48 63 75 60 58 56 59 60 68 77 78 80 85 97 87 92 98 100 100 100
68 57 51 46 40 37 42 42 47 46 44 40 39 47 37 32 30 32 30 26 26 28 31 46 56 89 93 88 86 84 85 75 78 84 98 100 100 100 99 100 100 100 100 100
86 74 67 65 52 58 71 56 41 47 49 46 45 42 33 34 32 32 30 30 27 26 28 48 57 81 90 94 97 98 99 100 95 99 100 100 99 98 99 100 100 100 100 100
93 81 74 77 68 92 56 46 40 45 45 42 38 31 28 29 27 28 28 27 31 29 32 37 54 91 93 99 99 99 100 99 100 100 100 100 100 100 100 100 100 100 100 100
78 87 98 93 78 58 52 48 46 55 53 43 41 35 28 23 25 27 31 31 32 36 41 65 77 90 94 97 100 99 100 100 100 100 100 100 100 100 100 100 100 100 100 100
80 81 90 100 84 86 56 38 34 38 68 40 33 34 33 32 41 35 28 35 41 49 85 95 98 99 98 99 100 99 100 100 100 100 100 100 100 100 100 100 100 100 100 100
92 95 96 99 99 75 53 43 39 70 66 44 36 30 36 38 40 30 37 52 64 80 89 96 100 98 98 100 99 99 100 99 99 99 100 100 100 100 100 100 100 100 100 100
75 88 93 93 93 86 50 50 49 53 46 42 48 37 43 46 41 40 46 62 76 92 98 98 99 99 100 100 100 100 98 97 98 98 99 99 100 100 100 100 100 100 100 100
78 69 73 69 75 53 58 50 56 57 53 48 50 50 53 53 48 57 60 72 84 93 97 98 98 100 100 97 93 96 92 93 93 95 97 97 98 99 100 100 100 98 97 100
49 61 71 71 57 65 60 61 68 66 57 52 48 47 50 49 49 54 71 82 88 88 89 90 91 93 91 88 87 88 90 90 90 94 94 93 92 97 97 96 94 91 92 95
52 56 66 67 63 61 59 61 51 63 62 47 44 45 49 54 52 62 71 77 81 82 83 84 86 88 89 87 89 89 88 85 86 85 87 87 88 88 86 84 84 78 79 78
72 76 76 55 49 58 50 48 54 57 56 44 48 50 43 47 52 66 74 80 80 86 82 80 79 80 82 84 85 85 82 78 80 77 78 77 70 69 68 67 67 61 64 66

GFSCGP_925_rhum_078.txt.gz
RH
42 48 52 43 45 34 32 35 38 36 29 27 32 36 30 43 79 84 91 96 96 96 94 90 96 99 97 100 100 100 100 100 98 97 97 96 89 90 81 60 44 60 51 48
44 50 36 37 41 40 36 37 39 34 28 30 34 33 29 51 61 77 82 94 95 96 98 93 96 100 99 99 100 100 100 100 99 96 94 98 96 86 74 61 63 61 53 49
38 38 35 37 42 43 42 42 39 37 34 32 32 38 32 36 58 57 64 78 90 94 89 94 93 87 96 98 100 100 99 98 99 92 93 94 94 93 82 74 70 69 59 55
43 28 34 39 40 37 46 35 34 36 39 48 31 52 36 31 45 54 58 71 88 94 91 88 89 88 88 93 94 99 99 98 98 91 89 92 86 84 83 72 65 66 64 67
45 40 37 44 40 35 39 32 36 36 43 42 40 50 43 38 38 39 44 60 76 89 94 96 93 94 94 93 100 99 98 97 99 91 83 85 79 74 74 74 68 69 71 70
36 30 35 33 33 33 31 35 37 41 49 66 47 51 50 40 37 33 35 42 62 86 92 91 92 97 99 100 100 99 98 96 97 88 80 80 75 73 71 72 70 70 69 68
36 34 27 31 36 38 36 41 60 61 73 68 44 53 38 32 32 33 33 34 47 71 92 92 93 95 99 100 99 100 96 96 93 91 83 75 75 69 66 65 65 61 61 63
36 43 33 29 39 43 44 45 68 61 67 56 54 59 46 36 35 34 33 32 50 76 85 87 85 85 92 95 92 93 93 90 88 86 85 79 74 69 66 63 62 59 55 54
49 43 29 27 28 28 39 50 38 66 79 77 63 49 37 30 33 30 34 37 49 75 84 85 81 78 82 88 88 85 86 83 82 81 82 80 76 75 69 65 62 60 56 62
40 48 34 28 26 27 35 38 57 66 83 82 63 61 48 35 29 31 30 43 51 64 80 81 82 77 74 76 78 80 80 77 74 71 73 74 74 73 73 67 61 57 62 65
37 46 44 31 36 36 41 36 46 52 63 59 66 59 48 38 40 43 33 35 47 63 77 79 77 74 72 68 68 70 71 70 68 65 66 67 67 67 62 59 51 45 51 58
42 49 56 44 32 29 29 39 44 61 65 72 68 46 32 38 40 36 32 28 44 56 66 72 74 73 72 68 64 65 69 68 68 66 64 59 55 51 49 57 58 68 73 66
75 75 56 47 36 35 37 36 42 54 70 79 71 52 37 32 31 32 33 30 32 50 55 64 69 72 72 69 67 64 64 66 68 73 70 72 72 70 69 75 76 79 78 82
78 88 65 52 41 39 44 37 36 44 67 68 74 47 37 34 33 32 32 33 32 41 51 57 64 67 64 66 67 68 70 69 69 75 77 75 79 75 81 84 80 78 75 77
84 97 67 53 39 32 41 44 43 45 49 50 43 54 38 36 31 30 32 28 29 33 41 49 56 60 64 64 66 65 69 74 76 82 84 80 78 82 84 83 84 85 86 88
84 99 77 61 48 41 42 42 47 49 48 46 43 46 32 36 35 35 31 29 29 29 35 42 50 54 62 64 63 64 66 71 76 84 86 85 87 90 90 93 97 98 100 100
94 100 98 66 53 51 66 51 44 45 46 46 59 45 37 37 37 37 34 34 31 30 29 34 41 49 60 71 70 80 85 77 78 84 86 94 100 100 100 100 100 100 100 100
89 96 100 88 76 88 54 43 38 42 40 44 43 43 38 34 32 33 33 31 35 30 30 33 36 56 86 84 90 99 100 100 99 100 100 100 100 100 100 100 100 100 100 100
74 83 100 99 96 71 50 49 52 58 56 47 48 44 40 36 29 29 29 33 29 32 29 31 36 80 95 95 97 99 100 100 100 100 100 99 99 99 100 100 100 100 100 100
63 76 93 100 95 96 59 44 38 45 71 42 44 47 45 34 41 38 27 29 38 37 55 86 89 95 97 100 99 100 100 100 100 100 100 100 100 100 100 100 100 100 100 100
99 100 96 99 96 84 61 50 44 67 65 45 41 44 47 44 44 34 40 39 53 69 93 98 94 94 99 99 100 100 100 100 100 100 100 100 100 100 100 100 100 100 100 100
88 96 97 95 100 91 52 52 64 62 49 48 52 51 57 57 62 55 53 52 69 93 98 99 96 96 96 96 97 100 100 100 100 100 100 100 100 100 100 100 100 100 100 100
70 76 75 76 77 60 60 60 59 63 63 52 55 49 53 51 55 58 66 79 93 99 96 99 97 99 100 100 98 98 100 100 100 100 100 100 100 100 100 100 100 100 100 99
47 59 70 68 53 59 59 63 60 67 61 53 49 53 55 47 56 65 78 92 97 96 98 98 98 98 99 100 100 98 97 98 99 99 100 100 99 100 100 100 100 99 99 97
55 57 74 75 61 64 58 62 60 58 66 64 51 48 51 49 54 68 83 90 88 92 90 92 94 95 97 97 98 96 96 94 94 95 96 97 98 97 96 94 94 97 99 96
74 83 89 93 79 95 83 58 51 62 60 60 52 49 50 60 73 81 91 91 87 85 85 86 87 86 83 86 89 93 92 89 90 91 90 89 88 86 86 94 100 98 98 98

GFSCGP_925_rhum_081.txt.gz
RH
45 44 49 40 36 29 30 30 28 26 26 26 24 24 20 22 54 57 64 72 82 88 72 78 88 94 98 99 100 100 100 98 98 97 100 100 100 94 89 78 66 59 55 49
45 50 39 35 39 37 31 32 29 28 26 28 24 25 22 24 30 46 54 65 71 74 87 81 90 98 98 98 100 100 100 99 96 97 99 100 100 98 87 75 75 67 53 50
37 39 35 35 40 43 40 40 36 33 30 26 28 28 26 24 39 48 55 52 62 68 82 88 88 99 97 99 99 100 100 100 98 98 95 97 97 98 90 75 64 61 65 54
38 27 35 38 36 36 39 33 36 37 37 34 30 35 29 23 24 37 45 59 61 67 71 75 83 94 96 91 100 100 100 100 99 97 99 100 93 96 92 77 53 51 49 64
41 41 34 36 37 36 34 31 35 35 37 37 26 34 33 32 28 23 24 46 54 60 68 73 81 81 87 87 97 100 100 100 100 99 96 94 94 88 80 82 72 78 65 60
34 32 32 27 29 34 32 32 35 41 40 48 33 37 34 28 27 24 24 28 48 58 66 69 75 83 85 86 90 96 98 99 98 95 94 92 88 86 82 78 78 81 82 71
31 30 30 30 34 36 34 40 47 57 60 42 38 43 32 29 26 24 23 22 38 56 65 71 80 88 90 88 92 98 98 98 98 94 91 88 88 86 82 79 77 80 88 91
36 34 32 31 31 37 40 39 43 43 50 38 44 45 31 28 27 29 29 27 31 53 64 67 71 78 89 95 96 97 98 96 98 98 93 88 84 84 82 82 79 75 73 69
38 33 26 29 31 29 44 47 33 51 72 64 46 42 31 27 28 26 25 26 31 47 61 64 67 72 78 88 98 98 92 89 93 95 95 90 86 81 82 74 70 70 67 63
43 44 33 28 26 27 33 35 50 46 51 52 47 48 31 28 25 28 32 30 31 42 60 64 65 70 73 76 83 92 90 86 87 90 92 90 88 83 81 77 69 65 62 60
43 44 45 36 35 33 33 39 45 39 47 43 47 42 38 30 28 35 36 31 31 45 58 64 63 66 70 73 76 83 84 82 83 83 86 86 86 86 82 76 69 64 62 61
72 66 49 38 32 29 28 32 34 51 59 56 47 38 29 33 32 37 31 29 26 36 53 60 64 66 68 70 71 72 73 74 80 82 83 83 81 79 75 66 58 65 72 71
61 79 65 44 30 26 34 34 31 33 50 49 61 42 31 34 32 30 30 29 28 33 52 60 65 67 65 66 67 67 70 74 76 78 77 76 76 80 77 59 71 74 75 74
60 80 94 72 58 48 39 37 38 38 53 43 47 38 33 31 31 29 31 30 29 29 44 53 60 63 65 66 65 64 67 71 73 74 74 73 72 67 55 67 73 77 81 82
67 60 63 78 67 66 58 37 33 42 42 46 39 38 33 33 30 29 31 30 28 26 33 44 50 56 60 66 67 65 66 69 71 73 73 70 69 67 60 68 79 80 77 77
62 92 94 87 64 64 64 44 33 38 36 40 43 41 32 29 28 30 30 33 27 26 28 32 40 48 59 63 66 70 70 71 71 71 73 72 70 71 73 79 91 94 89 86
67 95 100 75 75 88 70 49 38 34 36 36 44 36 32 33 35 33 32 35 33 30 28 29 33 40 46 52 66 70 72 77 77 74 74 76 78 77 79 91 100 100 99 97
68 80 100 90 98 97 49 44 37 38 34 39 39 36 32 31 32 34 30 32 32 31 34 29 30 35 47 60 63 74 78 79 80 79 81 87 94 96 98 99 99 99 100 100
65 69 100 97 97 92 62 56 52 47 42 37 38 34 33 31 34 31 29 29 32 33 34 32 28 35 71 78 88 87 91 91 90 95 100 100 100 99 99 100 100 100 100 100
65 62 96 99 93 87 71 53 44 43 58 46 45 47 43 35 46 40 38 44 40 39 38 35 41 66 77 90 93 94 99 100 100 100 99 99 100 100 100 100 100 100 100 100
89 92 94 88 88 74 56 51 52 59 56 51 50 46 47 50 42 44 55 54 54 70 74 86 82 81 84 94 93 96 98 100 100 100 100 100 100 100 100 100 100 100 100 100
83 90 93 88 90 84 57 56 63 58 64 58 52 50 55 59 57 56 62 75 84 92 93 91 90 96 96 96 95 97 99 100 100 100 100 100 100 100 100 99 100 100 100 100
58 73 78 75 72 59 59 59 58 62 67 53 59 54 55 62 62 57 68 87 96 96 94 94 94 97 99 98 97 98 100 100 100 100 100 100 100 100 100 100 100 100 100 100
47 56 70 65 52 66 56 53 58 56 59 59 62 53 54 62 60 63 78 92 95 95 96 95 97 97 99 100 100 100 100 100 100 100 100 100 99 100 100 100 100 99 100 100
50 54 61 70 59 65 52 56 64 66 69 58 52 53 55 56 66 73 84 90 89 91 94 95 96 98 99 100 100 99 99 99 99 100 100 100 100 100 100 100 100 100 100 95
69 69 74 66 84 88 78 67 74 79 77 66 60 59 71 69 82 83 82 79 80 83 85 85 86 86 86 88 91 95 96 95 96 94 96 96 97 100 99 99 100 99 98 98

GFSCGP_925_rhum_084.txt.gz
RH
21 28 28 21 23 20 18 22 21 16 16 19 17 15 11 10 15 21 26 31 37 41 43 52 69 81 81 85 100 100 99 100 99 100 100 100 98 99 94 74 55 41 44 57
26 31 18 19 22 28 26 24 22 16 16 21 18 15 11 10 14 16 18 27 32 40 47 52 70 80 84 83 96 100 98 99 97 100 100 99 100 90 78 67 60 64 72 57
32 21 18 24 31 32 28 27 23 21 18 19 21 21 16 9 14 18 22 22 26 34 45 54 64 75 81 79 89 100 100 98 99 100 99 100 99 100 92 79 79 72 67 65
34 26 24 26 31 25 30 20 22 24 25 26 20 23 13 15 16 16 19 27 26 31 36 50 58 71 77 79 84 98 100 100 99 98 100 100 92 90 93 87 79 78 78 71
31 33 31 34 28 24 26 20 19 23 27 27 25 26 15 12 16 15 13 19 25 29 35 45 54 66 71 75 78 91 98 100 99 100 98 98 94 83 89 85 78 70 76 80
29 25 29 29 22 23 24 27 28 29 29 38 29 23 18 14 18 16 14 14 20 26 33 39 50 65 67 75 80 87 96 99 100 99 100 98 96 92 90 84 70 59 61 64
14 21 21 25 24 22 27 28 36 43 43 38 20 23 20 16 16 16 14 14 18 24 31 39 49 57 63 74 81 85 90 93 100 100 98 94 92 89 89 78 69 60 53 52
21 17 15 16 22 22 30 29 32 40 36 32 23 30 21 16 14 14 15 16 19 25 31 38 43 50 62 71 74 83 87 86 94 95 92 90 85 89 86 78 71 62 59 59
25 22 15 16 15 14 24 33 23 33 30 46 28 24 22 18 18 17 16 15 18 20 29 34 40 50 60 67 70 82 85 88 83 88 86 83 85 79 78 73 73 65 63 62
31 35 20 19 21 18 18 18 36 34 45 43 27 28 25 21 19 16 18 19 20 18 25 32 37 47 56 64 69 81 80 78 72 84 83 80 79 78 73 70 70 67 66 70
41 36 32 30 29 28 28 32 29 27 30 36 34 24 19 20 18 18 19 20 20 23 27 33 35 41 50 59 67 74 72 65 65 70 75 76 78 76 73 74 74 72 72 72
54 56 43 31 24 23 23 26 29 39 30 34 35 30 21 22 21 22 20 21 20 26 30 33 36 39 46 53 58 65 63 59 61 67 69 73 75 76 78 77 76 76 74 73
43 74 57 38 29 23 28 27 26 27 30 39 51 33 17 16 17 18 21 19 19 22 29 34 38 40 43 48 52 56 60 60 61 66 70 73 75 76 78 79 77 73 71 67
39 41 67 67 62 54 54 42 29 29 44 39 34 27 22 21 20 17 19 18 17 19 26 33 38 40 40 45 49 52 55 59 62 65 67 72 73 76 78 78 77 74 69 66
44 47 35 36 38 38 41 46 42 37 29 37 31 27 21 18 18 18 18 20 20 18 20 28 37 39 40 43 46 50 52 57 61 64 64 64 71 71 70 70 74 74 71 68
46 75 63 68 45 40 48 41 39 36 33 25 25 27 19 19 18 19 19 19 21 20 21 21 26 34 41 44 46 49 51 56 59 60 60 59 61 64 63 63 64 68 73 72
62 63 79 62 45 52 53 46 46 32 30 29 34 25 21 22 20 20 19 19 21 22 24 25 23 26 35 42 48 48 51 55 59 59 59 59 60 59 58 61 61 65 79 85
60 57 76 67 68 76 46 62 56 39 28 24 23 22 20 19 18 19 23 25 26 28 25 26 24 24 26 35 44 46 50 53 57 57 58 59 61 62 60 60 60 75 94 99
49 55 70 72 63 51 70 62 77 62 37 23 23 22 21 21 23 25 26 33 36 35 33 28 28 25 28 30 34 46 48 52 57 57 57 58 62 65 71 88 100 100 99 100
42 52 60 61 78 57 48 48 58 47 62 38 36 37 35 31 39 31 40 40 41 43 46 56 60 39 39 50 47 46 48 52 56 59 62 74 87 97 99 99 100 100 100 100
65 68 77 65 90 52 46 47 48 97 95 59 51 39 39 41 43 41 46 48 52 58 62 72 69 59 48 60 60 56 59 64 75 90 96 99 100 100 100 100 100 100 100 100
86 70 73 68 88 70 44 40 64 82 62 52 59 45 48 42 36 36 50 58 63 72 81 76 79 82 80 72 69 76 90 100 100 100 100 100 100 100 100 99 100 100 100 100
45 78 94 62 50 42 42 50 50 50 55 54 52 48 46 42 36 38 58 68 82 91 92 88 93 96 94 90 90 97 100 100 100 100 100 100 100 100 100 100 100 100 100 100
33 39 50 45 45 44 48 49 60 56 59 53 51 43 43 45 40 48 66 74 80 90 92 93 95 97 99 100 100 100 100 100 100 100 100 100 100 100 100 100 100 100 100 100
32 39 37 37 33 44 30 50 60 61 57 56 52 46 47 45 47 56 72 80 84 89 93 95 96 96 98 100 100 100 100 98 99 99 99 100 100 100 100 100 100 100 100 98
36 51 51 50 78 77 57 57 61 64 62 56 57 56 60 59 66 67 75 76 81 84 88 93 95 94 93 93 93 95 97 96 95 96 99 99 99 98 99 99 100 100 99 98

GFSCGP_925_rhum_087.txt.gz
RH
14 10 18 16 15 14 17 17 16 15 12 15 16 15 13 10 8 9 13 14 17 22 24 31 42 51 54 60 84 96 100 99 98 100 100 100 98 97 93 79 74 85 84 70
14 16 13 15 15 17 21 20 20 16 14 15 16 17 13 11 10 8 9 12 16 21 26 33 44 57 61 64 76 94 100 98 97 100 99 98 98 92 86 83 77 64 66 58
22 17 14 17 20 28 22 24 24 21 16 14 17 19 16 13 12 10 8 10 12 18 27 34 43 58 70 66 73 90 98 95 100 99 98 98 94 95 96 91 73 62 53 51
19 16 19 20 21 22 29 21 20 20 21 24 16 24 17 13 10 9 9 13 13 14 23 32 42 52 65 66 70 83 94 96 97 100 100 97 88 89 85 79 60 73 60 58
21 22 23 27 22 18 26 19 21 21 20 21 20 21 18 15 14 11 12 13 14 15 21 29 40 47 55 60 70 81 94 95 95 100 100 99 87 81 80 74 65 65 78 60
24 18 22 19 21 24 23 22 22 22 22 34 24 24 22 16 13 13 12 10 11 14 19 25 35 43 50 59 68 81 92 96 97 100 99 100 97 84 85 78 76 81 82 70
23 18 20 21 27 25 26 28 37 41 39 38 20 21 20 13 12 12 12 11 11 13 18 25 34 40 47 57 64 84 88 94 97 99 98 100 98 90 87 78 81 78 77 76
19 18 10 16 20 24 27 29 38 43 38 32 19 25 18 12 11 10 11 11 13 15 18 23 30 39 45 55 65 76 82 84 93 98 95 95 97 85 82 89 81 73 70 72
21 18 11 8 11 16 20 31 23 29 27 38 30 21 16 14 14 14 13 12 13 13 17 22 27 38 44 52 61 70 78 82 91 94 95 94 92 88 80 86 82 72 64 59
29 34 17 13 14 12 15 9 25 25 39 42 26 21 18 17 17 15 14 15 14 12 14 21 25 35 41 50 56 64 73 77 85 86 91 90 83 85 83 80 80 71 63 56
34 34 27 20 21 21 19 18 19 23 27 32 32 20 15 16 15 15 17 16 16 16 14 19 24 31 40 48 52 60 63 65 70 85 85 85 84 83 82 79 78 71 69 59
42 48 41 28 18 17 17 20 20 30 32 23 26 25 14 16 15 16 16 18 18 20 17 18 24 29 39 45 48 56 59 58 59 69 77 82 82 82 78 77 76 76 71 65
34 52 51 36 26 22 25 24 22 23 25 32 43 28 14 13 18 17 16 16 17 18 23 23 26 28 35 42 46 51 57 53 54 56 64 73 76 76 77 75 74 72 71 67
37 33 39 50 56 37 34 25 25 26 36 32 30 24 18 19 17 16 16 16 16 16 19 22 27 28 31 37 43 48 53 53 51 53 58 63 68 72 73 74 74 73 73 71
33 44 32 27 24 25 32 32 31 32 31 36 28 24 18 16 14 18 15 15 16 16 15 18 25 28 29 33 40 44 48 52 51 52 55 59 66 66 66 70 72 73 75 74
46 52 43 42 30 30 31 28 26 26 27 28 26 26 15 15 15 17 14 14 16 16 15 17 18 25 30 31 36 41 45 51 53 53 55 56 62 63 65 68 69 70 72 72
52 56 63 59 30 42 48 29 27 32 34 32 31 23 18 17 18 19 18 17 16 17 18 19 20 18 22 30 34 37 42 46 52 53 54 55 57 61 61 64 65 66 71 71
61 54 62 65 49 59 27 36 44 52 50 43 33 20 17 16 16 17 15 17 22 22 23 23 20 21 20 22 31 38 39 43 49 51 52 53 55 56 57 58 58 59 64 70
46 52 85 72 54 36 28 30 40 48 54 47 40 17 15 14 15 17 16 24 28 30 31 33 35 33 25 22 23 33 38 41 44 49 50 50 52 53 54 54 56 58 76 97
38 45 61 56 58 56 52 37 46 48 70 68 62 41 29 29 41 41 34 36 36 36 38 44 46 47 37 29 30 28 38 39 41 46 46 48 51 53 55 58 92 100 100 100
54 61 73 62 56 49 47 40 46 74 95 72 74 57 70 39 37 37 34 35 37 44 48 51 53 54 56 41 42 37 35 39 41 46 48 51 56 65 93 99 100 100 100 100
61 71 77 61 54 65 38 42 71 76 74 72 87 79 71 78 32 31 38 43 49 51 55 63 71 80 75 66 58 52 68 93 94 97 99 99 100 99 99 99 100 100 100 100
66 58 62 42 43 64 39 58 51 54 57 51 54 50 52 51 35 32 41 50 59 68 70 80 84 92 96 88 87 97 100 100 100 100 100 100 100 100 100 100 100 100 100 100
31 49 93 77 65 68 45 54 48 46 54 49 46 43 42 42 35 34 48 57 70 79 84 91 94 96 98 100 100 100 100 100 100 100 100 100 100 100 100 100 99 99 100 100
35 42 33 32 60 50 63 51 54 50 49 50 48 48 51 50 52 52 58 67 74 82 87 89 91 93 95 100 100 100 100 100 100 100 100 100 100 100 100 100 100 100 99 99
51 65 54 78 64 62 52 52 55 54 53 53 53 51 49 52 56 60 73 77 81 87 88 89 96 99 100 100 100 100 100 100 99 99 99 100 100 100 99 99 100 100 99 97

GFSCGP_925_rhum_093.txt.gz
RH
18 24 28 26 26 27 28 30 31 25 18 19 23 25 22 15 15 16 20 18 18 18 32 36 46 52 79 82 82 84 87 91 94 100 100 100 100 100 100 99 100 100 100 100
20 24 18 16 16 18 20 24 25 20 18 19 23 31 30 24 16 16 17 20 20 20 35 46 51 75 86 92 85 85 87 94 100 98 99 98 100 100 99 100 100 100 100 100
31 29 18 17 16 14 14 19 25 27 25 29 41 41 36 23 17 15 15 16 17 18 38 52 53 74 95 96 88 85 83 99 100 99 100 100 100 100 100 100 100 100 100 100
38 29 27 23 17 16 17 12 14 22 43 58 41 75 46 35 23 16 14 14 15 16 39 52 56 76 92 98 83 80 80 98 100 100 100 98 98 98 100 91 93 96 100 97
32 31 30 30 23 20 21 17 18 37 47 55 53 73 56 30 24 18 16 16 15 17 42 55 58 65 90 92 89 84 83 100 100 98 95 95 95 93 99 100 99 89 86 85
25 20 22 23 22 22 21 24 30 40 50 80 62 62 59 35 26 18 15 14 19 19 42 55 57 64 88 92 91 88 93 100 100 98 95 89 87 91 92 94 93 93 88 86
24 22 18 20 26 27 26 32 55 70 70 71 37 53 54 32 21 16 16 15 17 18 41 56 66 68 77 90 93 93 92 100 100 98 93 87 88 89 89 82 81 78 79 77
35 34 21 17 23 32 32 33 63 68 82 84 48 70 54 35 34 16 15 16 19 26 39 54 62 66 70 84 92 90 89 98 100 99 93 84 88 90 86 78 80 73 72 73
36 32 23 15 15 26 35 39 31 47 44 68 52 39 34 33 25 18 15 15 20 29 38 51 57 62 68 77 87 88 88 92 100 99 93 86 86 89 85 79 73 74 72 70
35 48 32 23 17 22 25 26 43 48 60 57 39 31 51 36 34 31 19 21 22 25 34 48 52 57 68 74 81 82 83 87 93 99 98 91 87 85 86 77 73 72 70 70
62 59 46 29 18 18 23 29 32 30 47 59 52 43 33 35 34 39 37 27 26 24 25 39 49 52 63 72 79 79 79 83 89 95 98 96 93 88 87 83 74 75 73 70
45 59 64 47 33 34 18 19 20 33 36 36 40 35 29 26 39 41 52 51 23 20 24 33 46 52 63 70 80 82 78 84 90 92 92 97 99 96 90 84 82 75 78 74
41 54 66 48 36 48 52 24 21 24 28 34 52 44 19 20 35 43 46 58 36 24 25 36 49 53 62 68 77 82 81 80 79 81 89 93 97 99 97 91 87 82 78 75
37 45 51 64 55 54 47 36 30 48 53 38 32 24 20 22 35 47 46 39 33 32 24 36 51 51 57 65 70 78 82 81 81 87 88 87 92 95 97 94 89 92 86 78
46 51 48 42 36 32 33 31 29 28 55 68 51 38 27 26 30 26 25 19 25 27 22 26 42 50 56 59 65 70 76 78 80 86 88 85 81 83 89 95 95 90 91 89
55 73 64 61 45 40 40 34 30 28 27 30 32 33 37 36 34 45 46 29 20 22 19 25 28 42 52 56 57 63 70 72 72 80 86 85 86 86 91 94 96 95 93 91
63 74 80 80 55 57 64 44 33 31 26 28 40 59 72 70 66 66 62 50 32 34 41 44 46 48 53 55 56 58 65 67 68 69 83 84 86 88 88 91 90 94 95 94
63 66 77 93 72 85 47 29 30 45 68 74 74 78 73 73 66 58 68 44 47 54 54 54 55 54 53 50 45 40 61 66 65 66 66 74 84 87 86 88 87 84 85 87
53 67 92 95 90 62 42 61 79 87 89 75 77 74 72 72 66 63 66 80 58 61 62 66 68 75 76 77 75 59 47 64 65 66 64 63 70 80 84 86 85 85 87 87
49 63 78 88 88 78 62 69 65 59 94 72 76 84 85 76 89 85 74 81 71 75 75 81 85 88 90 92 86 84 92 84 72 66 62 64 65 68 75 77 79 80 85 96
71 77 81 84 93 72 78 74 67 95 96 69 70 76 85 90 90 79 76 80 81 82 83 85 90 92 93 94 91 98 98 98 100 98 71 67 64 66 67 74 80 89 98 100
76 95 94 87 89 85 84 70 93 92 69 71 73 68 83 85 92 84 82 80 80 84 84 86 92 96 97 97 94 98 97 100 100 99 100 100 98 92 82 84 99 99 100 100
88 70 83 74 79 93 85 78 60 64 68 67 69 62 67 78 86 89 86 80 79 82 86 87 92 94 98 99 99 98 100 100 100 100 99 100 100 100 100 100 100 99 100 100
73 73 79 74 78 90 84 72 58 57 63 60 59 60 64 78 75 79 81 80 82 84 87 90 91 94 97 99 100 100 99 99 99 100 100 100 100 100 100 100 100 100 99 99
93 92 91 88 86 76 68 65 65 62 60 58 58 64 68 71 80 82 85 84 83 88 93 96 97 98 99 100 100 100 100 98 98 99 100 100 100 100 100 100 100 100 100 97
85 100 100 100 100 84 73 64 60 63 64 61 65 68 70 72 79 79 84 85 88 90 94 96 98 100 100 100 100 100 100 96 90 98 99 99 97 98 98 98 99 100 100 96

GFSCGP_925_rhum_096.txt.gz
RH
21 25 33 31 36 34 37 39 42 31 25 24 25 22 22 27 30 28 25 19 18 18 30 52 69 85 91 92 87 86 87 88 83 87 100 100 99 100 100 100 100 100 100 100
24 28 21 22 23 25 27 29 33 26 22 22 23 29 31 31 29 28 27 21 21 19 50 59 74 95 96 99 95 90 89 87 83 85 82 98 99 100 98 96 100 100 100 100
27 23 18 20 22 22 22 23 23 24 22 28 36 32 26 24 32 29 26 22 18 21 47 61 84 95 100 100 98 93 90 87 86 100 94 100 100 100 100 100 98 99 100 100
44 28 20 26 21 20 25 17 16 16 21 30 38 43 30 28 30 30 28 24 19 21 40 58 78 96 97 99 97 88 92 95 97 99 94 97 98 99 99 99 100 99 100 100
34 39 43 42 38 22 22 19 19 17 41 56 57 66 35 42 41 35 28 22 17 19 38 58 76 88 95 100 98 92 97 100 100 99 88 98 100 99 99 100 100 100 100 100
30 23 23 26 24 25 26 28 32 44 56 74 63 56 34 49 40 33 25 20 18 20 40 53 65 87 98 100 97 94 100 98 100 98 96 99 98 100 100 100 99 100 100 100
31 28 23 20 25 24 28 34 53 69 74 72 48 61 42 38 35 34 32 25 23 20 38 57 77 94 97 99 99 100 100 98 100 99 97 97 96 96 100 100 99 98 100 100
42 42 24 22 24 30 37 42 63 62 73 61 55 70 62 40 35 31 32 27 25 23 49 60 74 89 94 97 98 98 100 96 100 98 97 95 92 93 97 96 96 93 96 94
41 35 21 18 18 23 32 42 38 50 55 64 60 48 35 35 47 46 42 36 25 23 48 63 69 83 89 94 96 96 100 96 98 99 96 92 91 92 89 89 87 86 84 88
43 52 35 32 19 23 30 31 46 50 63 67 50 41 41 47 60 52 52 46 43 41 57 63 67 75 84 90 93 94 96 97 95 98 96 89 92 90 87 84 82 78 78 79
54 60 48 37 23 27 30 31 40 45 60 65 65 48 57 72 67 68 49 43 43 41 54 62 65 68 76 88 92 92 93 98 95 98 95 88 88 90 88 83 78 76 72 72
53 68 70 52 43 42 34 27 43 68 60 59 60 49 46 58 70 58 53 47 47 44 36 55 60 68 79 85 90 91 90 94 98 98 96 91 87 87 89 85 77 75 74 68
49 58 68 53 58 61 72 56 38 47 37 41 56 45 26 32 42 49 61 56 49 43 32 43 57 67 78 81 86 85 87 88 90 95 97 97 94 89 88 87 82 75 74 69
46 49 56 64 54 57 70 75 40 50 80 66 55 37 34 42 40 57 67 56 48 34 27 53 59 63 74 79 82 83 85 88 87 88 92 94 98 95 92 90 86 82 76 77
53 56 59 56 46 41 39 55 46 42 47 68 63 59 47 56 53 59 56 52 43 34 31 51 66 65 72 77 81 83 84 89 92 93 85 82 87 97 98 95 91 88 85 84
62 72 67 64 50 50 53 45 40 37 33 35 39 47 74 64 62 65 74 67 41 45 55 54 51 65 69 72 79 83 85 86 87 85 81 82 84 89 97 98 98 95 95 91
65 76 81 82 67 60 62 48 41 37 80 68 60 88 73 76 71 81 86 72 62 66 72 73 76 73 75 81 75 77 84 88 88 88 90 90 86 84 87 96 99 97 95 97
65 71 84 91 67 82 49 48 64 82 82 79 79 82 77 76 69 74 80 82 86 85 87 86 86 83 88 91 84 68 74 82 86 86 89 91 92 89 85 85 87 94 96 96
62 75 89 92 94 65 52 72 78 75 89 76 84 83 80 68 66 76 79 83 88 88 87 87 88 90 92 95 94 91 90 83 83 80 82 91 93 92 91 92 94 94 94 97
63 69 78 93 88 85 82 68 60 64 99 73 80 80 83 78 94 89 82 86 86 84 85 85 90 90 91 94 96 96 97 99 99 99 96 88 88 93 94 93 94 96 96 97
86 88 89 88 93 79 84 80 72 77 99 77 76 77 88 95 94 91 82 80 80 82 84 84 87 90 94 93 92 93 96 99 100 100 100 100 96 90 92 94 94 95 97 100
88 93 96 90 92 89 79 77 82 87 83 71 76 78 88 88 89 90 86 84 80 81 83 87 89 94 96 97 94 96 98 100 100 100 100 100 100 100 100 99 100 100 100 100
96 74 88 75 78 89 88 77 69 67 70 72 76 78 82 82 82 87 90 87 84 85 87 89 94 95 98 99 99 98 100 100 100 98 100 100 99 100 100 100 100 100 100 100
91 80 87 86 94 88 77 68 65 66 70 71 74 73 75 84 82 82 82 84 90 88 91 92 92 94 98 100 100 100 100 99 99 100 100 100 100 100 99 100 100 100 100 98
90 88 99 99 98 79 77 70 69 68 68 72 72 74 77 78 81 81 84 85 87 90 92 96 98 99 100 100 100 100 97 98 97 97 99 100 100 100 100 100 100 100 99 99
90 99 98 98 100 99 81 67 64 71 73 72 74 77 75 76 80 79 85 86 88 90 92 97 100 100 100 100 100 100 97 95 99 99 99 98 98 99 99 98 100 98 96 94